CW1648 Weather Reports


time (UTC)temp
C
wind
direction
speed
KPH
gust
KPH
rain 1hr
cm
rain 24hr
cm
rain mn
cm
humidity
%
barometer
mb
20260509154306 16 0 1.6 17.7 0.00 0.00 0.00 73 1009.2
20260509154239 16 0 1.6 17.7 0.00 0.00 0.00 73 1009.2
20260509154206 16 0 1.6 17.7 0.00 0.00 0.00 73 1009.3
20260509154105 16 0 1.6 17.7 0.00 0.00 0.00 72 1009.2
20260509154047 17 360 3.2 17.7 0.00 0.00 0.00 71 1009.2
20260509154005 16 0 1.6 17.7 0.00 0.00 0.00 71 1009.2
20260509153904 16 0 1.6 17.7 0.00 0.00 0.00 71 1009.2
20260509153822 16 0 1.6 17.7 0.00 0.00 0.00 70 1009.2
20260509153818 16 0 0.0 17.7 0.00 0.00 0.00 71 1009.2
20260509153812 16 0 0.0 17.7 0.00 0.00 0.00 70 1009.2
20260509153603 17 0 1.6 17.7 0.00 0.00 0.00 69 1009.2
20260509153517 17 360 0.0 17.7 0.00 0.00 0.00 69 1009.2
20260509153502 17 0 1.6 17.7 0.00 0.00 0.00 69 1009.2
20260509153402 17 0 1.6 12.9 0.00 0.00 0.00 69 1009.2
20260509153237 17 0 1.6 12.9 0.00 0.00 0.00 68 1009.1
20260509153159 17 0 1.6 12.9 0.00 0.00 0.00 68 1009.2
20260509153059 17 0 1.6 12.9 0.00 0.00 0.00 68 1009.3
20260509153032 17 360 0.0 12.9 0.00 0.00 0.00 68 1009.1
20260509153018 17 0 0.0 12.9 0.00 0.00 0.00 67 1009.0
20260509153012 17 0 0.0 12.9 0.00 0.00 0.00 68 1009.1
20260509153008 17 0 1.6 12.9 0.00 0.00 0.00 68 1009.1
20260509152841 17 0 0.0 12.9 0.00 0.00 0.00 67 1009.0
20260509152657 17 0 0.0 12.9 0.00 0.00 0.00 66 1009.0
20260509152610 17 0 0.0 6.4 0.00 0.00 0.00 67 1009.0
20260509152606 17 0 0.0 6.4 0.00 0.00 0.00 66 1009.0
20260509152518 17 360 0.0 4.8 0.00 0.00 0.00 66 1009.0
20260509152408 17 0 0.0 6.4 0.00 0.00 0.00 67 1009.1
20260509152404 17 0 0.0 6.4 0.00 0.00 0.00 67 1009.0
20260509152236 17 0 0.0 6.4 0.00 0.00 0.00 67 1009.1
20260509152154 17 0 0.0 6.4 0.00 0.00 0.00 66 1009.0
20260509152054 17 0 0.0 4.8 0.00 0.00 0.00 67 1009.1
20260509152018 17 239 0.0 4.8 0.00 0.00 0.00 69 1009.1
20260509152007 17 225 0.0 1.6 0.00 0.00 0.00 67 1009.1
20260509152002 17 202 0.0 1.6 0.00 0.00 0.00 69 1009.2
20260509151753 17 272 0.0 1.6 0.00 0.00 0.00 67 1009.1
20260509151733 17 225 0.0 1.6 0.00 0.00 0.00 67 1009.1
20260509151652 17 198 0.0 0.0 0.00 0.00 0.00 68 1009.1
20260509151552 17 237 0.0 0.0 0.00 0.00 0.00 68 1009.1
20260509151527 17 229 0.0 0.0 0.00 0.00 0.00 67 1009.1
20260509151517 17 225 0.0 0.0 0.00 0.00 0.00 68 1009.1
20260509151451 17 205 0.0 0.0 0.00 0.00 0.00 68 1009.1
20260509151422 17 225 0.0 0.0 0.00 0.00 0.00 68 1009.1
20260509151414 17 194 0.0 0.0 0.00 0.00 0.00 67 1009.1
20260509151405 17 202 0.0 0.0 0.00 0.00 0.00 67 1009.1
20260509151049 17 232 0.0 0.0 0.00 0.00 0.00 68 1009.0
20260509151017 17 232 0.0 0.0 0.00 0.00 0.00 68 1008.9
20260509150948 17 249 0.0 0.0 0.00 0.00 0.00 68 1008.9
20260509150848 17 257 0.0 0.0 0.00 0.00 0.00 69 1008.9
20260509150748 17 226 0.0 0.0 0.00 0.00 0.00 68 1008.7
20260509150732 17 244 0.0 0.0 0.00 0.00 0.00 68 1008.7
20260509150701 17 231 0.0 0.0 0.00 0.00 0.00 69 1008.8
20260509150658 17 251 0.0 0.0 0.00 0.00 0.00 69 1008.7
20260509150517 17 224 0.0 0.0 0.00 0.00 0.00 69 1008.9
20260509150446 17 229 0.0 0.0 0.00 0.00 0.00 69 1008.9
20260509150346 17 216 0.0 1.6 0.00 0.00 0.00 69 1008.9
20260509150246 17 269 0.0 1.6 0.00 0.00 0.00 71 1009.0
20260509150232 17 229 0.0 1.6 0.00 0.00 0.00 71 1009.0
20260509150145 17 228 0.0 1.6 0.00 0.00 0.00 72 1009.0
20260509150045 17 227 0.0 1.6 0.00 0.00 0.00 71 1008.9
20260509150017 17 360 0.0 1.6 0.00 0.00 0.00 70 1008.7
20260509145957 16 0 0.0 1.6 0.00 0.00 0.00 70 1008.6
20260509145953 16 0 0.0 1.6 0.00 0.00 0.00 70 1008.7
20260509145802 16 0 0.0 3.2 0.00 0.00 0.00 69 1008.7
20260509145757 16 0 0.0 3.2 0.00 0.00 0.00 70 1008.7
20260509145752 16 0 0.0 3.2 0.00 0.00 0.00 69 1008.7
20260509145542 16 0 0.0 3.2 0.00 0.00 0.00 69 1008.8
20260509145532 16 360 0.0 6.4 0.00 0.00 0.00 69 1008.9
20260509145443 16 0 0.0 6.4 0.00 0.00 0.00 69 1008.9
20260509145343 16 0 0.0 6.4 0.00 0.00 0.00 69 1009.0
20260509145242 16 0 0.0 6.4 0.00 0.00 0.00 70 1008.9
20260509145229 16 0 0.0 6.4 0.00 0.00 0.00 71 1008.9
20260509145142 16 0 1.6 6.4 0.00 0.00 0.00 71 1008.9
20260509145041 16 0 1.6 6.4 0.00 0.00 0.00 71 1008.9
20260509145032 16 360 0.0 6.4 0.00 0.00 0.00 71 1009.0
20260509144940 16 0 1.6 6.4 0.00 0.00 0.00 70 1009.0
20260509144729 16 0 1.6 6.4 0.00 0.00 0.00 70 1008.9
20260509144639 16 0 1.6 6.4 0.00 0.00 0.00 70 1008.9
20260509144538 16 0 0.0 6.4 0.00 0.00 0.00 72 1008.9
20260509144517 16 360 1.6 4.8 0.00 0.00 0.00 72 1009.0
20260509144438 16 0 0.0 4.8 0.00 0.00 0.00 72 1009.0
20260509144337 16 0 0.0 4.8 0.00 0.00 0.00 72 1009.1
20260509144228 16 0 0.0 4.8 0.00 0.00 0.00 72 1009.0
20260509144135 16 0 0.0 4.8 0.00 0.00 0.00 71 1008.9
20260509144108 16 0 0.0 4.8 0.00 0.00 0.00 72 1008.8
20260509144017 16 360 0.0 4.8 0.00 0.00 0.00 72 1008.8
20260509143955 16 0 0.0 4.8 0.00 0.00 0.00 73 1008.9
20260509143950 16 0 0.0 4.8 0.00 0.00 0.00 72 1008.8
20260509143832 16 0 0.0 4.8 0.00 0.00 0.00 73 1008.9
20260509143634 16 0 0.0 4.8 0.00 0.00 0.00 72 1008.9
20260509143534 16 0 0.0 4.8 0.00 0.00 0.00 72 1009.0
20260509143517 16 360 0.0 4.8 0.00 0.00 0.00 72 1009.0
20260509143433 16 0 0.0 4.8 0.00 0.00 0.00 72 1009.0
20260509143333 16 0 0.0 4.8 0.00 0.00 0.00 73 1009.0
20260509143225 16 0 0.0 0.0 0.00 0.00 0.00 74 1009.0
20260509143132 16 0 0.0 1.6 0.00 0.00 0.00 74 1008.9
20260509143032 16 360 0.0 1.6 0.00 0.00 0.00 73 1008.9
20260509142950 16 0 0.0 1.6 0.00 0.00 0.00 74 1008.8
20260509142946 16 0 0.0 1.6 0.00 0.00 0.00 73 1008.9
20260509142937 16 0 0.0 1.6 0.00 0.00 0.00 73 1008.8
20260509142630 16 0 0.0 1.6 0.00 0.00 0.00 74 1008.9
20260509142547 16 360 0.0 1.6 0.00 0.00 0.00 74 1009.2
20260509142529 16 0 0.0 1.6 0.00 0.00 0.00 73 1009.1
20260509142429 16 0 0.0 1.6 0.00 0.00 0.00 74 1009.2
20260509142327 16 0 0.0 1.6 0.00 0.00 0.00 74 1009.0
20260509142224 16 0 0.0 1.6 0.00 0.00 0.00 74 1008.9
20260509142127 16 0 0.0 6.4 0.00 0.00 0.00 74 1008.8
20260509142043 16 0 0.0 6.4 0.00 0.00 0.00 73 1008.9
20260509142039 16 0 0.0 6.4 0.00 0.00 0.00 73 1008.9
20260509142035 16 0 0.0 6.4 0.00 0.00 0.00 73 1008.9
20260509142017 16 360 0.0 6.4 0.00 0.00 0.00 73 1008.9
20260509141835 16 0 0.0 6.4 0.00 0.00 0.00 73 1008.9
20260509141826 16 0 0.0 6.4 0.00 0.00 0.00 73 1008.9
20260509141625 16 0 0.0 6.4 0.00 0.00 0.00 73 1008.8
20260509141525 16 0 0.0 6.4 0.00 0.00 0.00 73 1008.8
20260509141518 16 360 0.0 6.4 0.00 0.00 0.00 73 1008.7
20260509141423 16 0 0.0 6.4 0.00 0.00 0.00 73 1008.7
20260509141327 16 0 0.0 6.4 0.00 0.00 0.00 73 1008.9
20260509141218 16 0 0.0 6.4 0.00 0.00 0.00 74 1008.8
20260509141120 16 0 0.0 3.2 0.00 0.00 0.00 74 1008.9
20260509141103 16 360 0.0 3.2 0.00 0.00 0.00 74 1009.0
20260509141020 16 0 0.0 3.2 0.00 0.00 0.00 74 1008.9
20260509140919 16 0 0.0 3.2 0.00 0.00 0.00 74 1009.0
20260509140819 16 0 0.0 3.2 0.00 0.00 0.00 75 1009.1
20260509140716 16 0 0.0 3.2 0.00 0.00 0.00 75 1009.0
20260509140618 16 0 0.0 1.6 0.00 0.00 0.00 75 1009.0
20260509140530 16 0 0.0 12.9 0.00 0.00 0.00 74 1008.9
20260509140526 16 0 0.0 8.0 0.00 0.00 0.00 75 1009.1
20260509140518 16 360 0.0 12.9 0.00 0.00 0.00 75 1008.9
20260509140333 16 0 0.0 12.9 0.00 0.00 0.00 75 1008.9
20260509140319 16 0 0.0 12.9 0.00 0.00 0.00 74 1008.9
20260509140208 15 0 1.6 12.9 0.00 0.00 0.00 74 1008.7
20260509140200 16 0 0.0 12.9 0.00 0.00 0.00 74 1008.8
20260509140018 16 360 0.0 12.9 0.00 0.00 0.00 74 1008.8
20260509135937 15 0 0.0 12.9 0.00 0.00 0.00 74 1008.8
20260509135928 15 0 1.6 12.9 0.00 0.00 0.00 74 1008.7
20260509135613 15 0 1.6 12.9 0.00 0.00 0.00 75 1008.7
20260509135518 15 360 8.0 12.9 0.00 0.00 0.00 75 1008.6
20260509135512 15 0 0.0 12.9 0.00 0.00 0.00 75 1008.6
20260509135412 15 0 0.0 12.9 0.00 0.00 0.00 75 1008.6
20260509135311 15 0 0.0 12.9 0.00 0.00 0.00 75 1008.6
20260509135217 15 0 0.0 12.9 0.00 0.00 0.00 75 1008.6
20260509135211 15 0 0.0 12.9 0.00 0.00 0.00 75 1008.6
20260509135111 15 0 0.0 12.9 0.00 0.00 0.00 75 1008.7
20260509135018 15 360 0.0 12.9 0.00 0.00 0.00 75 1008.7
20260509135011 15 0 0.0 12.9 0.00 0.00 0.00 75 1008.7
20260509134946 15 0 0.0 12.9 0.00 0.00 0.00 75 1008.7
20260509134942 15 0 1.6 12.9 0.00 0.00 0.00 75 1008.6
20260509134934 15 0 0.0 12.9 0.00 0.00 0.00 75 1008.7
20260509134815 15 0 0.0 12.9 0.00 0.00 0.00 75 1008.7
20260509134610 15 0 1.6 12.9 0.00 0.00 0.00 75 1008.6
20260509134517 15 360 0.0 12.9 0.00 0.00 0.00 76 1008.7
20260509134508 15 0 1.6 12.9 0.00 0.00 0.00 76 1008.7
20260509134443 15 0 1.6 12.9 0.00 0.00 0.00 77 1008.8
20260509134438 15 0 1.6 12.9 0.00 0.00 0.00 77 1008.9
20260509134430 15 0 1.6 12.9 0.00 0.00 0.00 77 1008.7
20260509134312 15 0 1.6 12.9 0.00 0.00 0.00 77 1008.8
20260509134107 15 0 3.2 12.9 0.00 0.00 0.00 77 1008.9
20260509134102 15 360 0.0 12.9 0.00 0.00 0.00 76 1008.8
20260509134024 15 0 3.2 12.9 0.00 0.00 0.00 76 1008.7
20260509134019 15 0 3.2 12.9 0.00 0.00 0.00 76 1008.7
20260509134015 15 0 3.2 12.9 0.00 0.00 0.00 76 1008.8
20260509133825 15 0 3.2 12.9 0.00 0.00 0.00 76 1008.7
20260509133704 15 0 3.2 12.9 0.00 0.00 0.00 76 1008.4
20260509133603 15 0 1.6 12.9 0.00 0.00 0.00 76 1008.3
20260509133518 15 360 0.0 12.9 0.00 0.00 0.00 76 1008.5
20260509133504 15 0 1.6 12.9 0.00 0.00 0.00 76 1008.5
20260509133402 15 0 1.6 14.5 0.00 0.00 0.00 76 1008.6
20260509133303 15 0 1.6 14.5 0.00 0.00 0.00 76 1008.5
20260509133220 15 0 0.0 14.5 0.00 0.00 0.00 77 1008.6
20260509133211 15 0 1.6 14.5 0.00 0.00 0.00 76 1008.5
20260509133018 15 360 4.8 14.5 0.00 0.00 0.00 77 1008.7
20260509133001 15 0 0.0 14.5 0.00 0.00 0.00 77 1008.7
20260509132900 15 0 0.0 14.5 0.00 0.00 0.00 76 1008.7
20260509132828 15 0 0.0 14.5 0.00 0.00 0.00 76 1008.7
20260509132714 15 0 0.0 14.5 0.00 0.00 0.00 77 1008.7
20260509132709 15 0 0.0 14.5 0.00 0.00 0.00 76 1008.7
20260509132517 15 360 0.0 14.5 0.00 0.00 0.00 76 1008.8
20260509132459 15 0 0.0 14.5 0.00 0.00 0.00 76 1008.8
20260509132358 15 0 0.0 4.8 0.00 0.00 0.00 77 1008.8
20260509132258 15 0 0.0 0.0 0.00 0.00 0.00 77 1008.9
20260509132212 15 0 0.0 0.0 0.00 0.00 0.00 77 1008.7
20260509132157 15 0 0.0 0.0 0.00 0.00 0.00 77 1008.7
20260509132058 15 0 0.0 0.0 0.00 0.00 0.00 77 1008.8
20260509132018 15 360 0.0 0.0 0.00 0.00 0.00 77 1008.7
20260509131957 15 0 0.0 0.0 0.00 0.00 0.00 77 1008.7
20260509131857 15 0 0.0 0.0 0.00 0.00 0.00 77 1008.7
20260509131824 15 0 0.0 0.0 0.00 0.00 0.00 78 1008.7
20260509131814 15 0 0.0 1.6 0.00 0.00 0.00 78 1008.7
20260509131705 15 0 0.0 1.6 0.00 0.00 0.00 78 1008.7
20260509131517 15 360 0.0 1.6 0.00 0.00 0.00 78 1008.8
20260509131455 15 0 0.0 1.6 0.00 0.00 0.00 78 1008.8
20260509131354 15 0 0.0 1.6 0.00 0.00 0.00 78 1008.8
20260509131330 15 0 0.0 4.8 0.00 0.00 0.00 78 1008.8
20260509131326 15 0 0.0 4.8 0.00 0.00 0.00 78 1008.8
20260509131308 15 0 0.0 1.6 0.00 0.00 0.00 78 1008.8
20260509131018 15 360 0.0 4.8 0.00 0.00 0.00 78 1008.8
20260509130953 15 0 0.0 4.8 0.00 0.00 0.00 78 1008.8
20260509130853 15 0 0.0 4.8 0.00 0.00 0.00 78 1008.6
20260509130752 15 0 0.0 4.8 0.00 0.00 0.00 79 1008.6
20260509130710 15 0 0.0 4.8 0.00 0.00 0.00 79 1008.6
20260509130651 15 0 0.0 6.4 0.00 0.00 0.00 79 1008.6
20260509130551 15 0 0.0 6.4 0.00 0.00 0.00 79 1008.7
20260509130517 15 360 0.0 6.4 0.00 0.00 0.00 79 1008.6
20260509130451 15 0 1.6 6.4 0.00 0.00 0.00 79 1008.6
20260509130351 15 0 1.6 6.4 0.00 0.00 0.00 79 1008.7
20260509130251 14 0 1.6 9.7 0.00 0.00 0.00 79 1008.7
20260509130209 14 0 1.6 9.7 0.00 0.00 0.00 80 1008.8
20260509130150 14 0 1.6 9.7 0.00 0.00 0.00 80 1008.8
20260509130050 14 0 1.6 9.7 0.00 0.00 0.00 80 1008.8
20260509130018 14 360 0.0 9.7 0.00 0.00 0.00 80 1008.8
20260509130001 14 0 1.6 9.7 0.00 0.00 0.00 80 1008.7
20260509125957 14 0 1.6 9.7 0.00 0.00 0.00 80 1008.8
20260509125747 14 0 1.6 9.7 0.00 0.00 0.00 80 1008.3
20260509125716 14 0 1.6 9.7 0.00 0.00 0.00 80 1008.1
20260509125708 14 0 1.6 9.7 0.00 0.00 0.00 80 1008.1
20260509125554 14 0 1.6 9.7 0.00 0.00 0.00 80 1008.5
20260509125517 14 360 3.2 9.7 0.00 0.00 0.00 80 1008.7
20260509125437 14 0 0.0 0.0 0.00 0.00 0.00 80 1008.9
20260509125432 14 0 0.0 0.0 0.00 0.00 0.00 81 1009.0
20260509125428 14 0 0.0 0.0 0.00 0.00 0.00 81 1009.0
20260509125424 13 0 0.0 0.0 0.00 0.00 0.00 81 1008.9
20260509125420 13 0 0.0 0.0 0.00 0.00 0.00 80 1009.0
20260509125412 14 0 0.0 9.7 0.00 0.00 0.00 80 1008.8
20260509125403 14 0 0.0 1.6 0.00 0.00 0.00 80 1008.8
20260509125357 14 0 0.0 0.0 0.00 0.00 0.00 80 1008.9
20260509125018 14 360 0.0 0.0 0.00 0.00 0.00 81 1009.0
20260509124805 13 0 0.0 0.0 0.00 0.00 0.00 80 1009.0
20260509124651 13 0 0.0 0.0 0.00 0.00 0.00 81 1009.0
20260509124518 13 360 0.0 0.0 0.00 0.00 0.00 81 1009.1
20260509124442 13 0 0.0 0.0 0.00 0.00 0.00 81 1009.0
20260509124341 13 0 0.0 0.0 0.00 0.00 0.00 81 1008.9
20260509124240 13 0 0.0 1.6 0.00 0.00 0.00 81 1009.0
20260509124207 13 0 0.0 1.6 0.00 0.00 0.00 81 1009.0
20260509124139 13 0 0.0 1.6 0.00 0.00 0.00 81 1009.0
20260509124052 13 0 0.0 1.6 0.00 0.00 0.00 81 1008.9
20260509124048 13 0 0.0 1.6 0.00 0.00 0.00 81 1008.9
20260509124017 13 360 0.0 1.6 0.00 0.00 0.00 81 1009.0
20260509123838 13 0 0.0 1.6 0.00 0.00 0.00 81 1008.9
20260509123806 13 0 0.0 1.6 0.00 0.00 0.00 81 1008.9
20260509123652 13 0 0.0 1.6 0.00 0.00 0.00 81 1008.9
20260509123517 13 360 0.0 1.6 0.00 0.00 0.00 81 1009.0
20260509123437 13 0 0.0 1.6 0.00 0.00 0.00 81 1008.9
20260509123422 13 0 0.0 1.6 0.00 0.00 0.00 81 1009.0
20260509123336 13 0 0.0 1.6 0.00 0.00 0.00 81 1008.9
20260509123310 13 0 0.0 1.6 0.00 0.00 0.00 82 1009.0
20260509123136 13 0 0.0 1.6 0.00 0.00 0.00 82 1009.0
20260509123048 13 0 0.0 1.6 0.00 0.00 0.00 82 1009.0
20260509123044 13 0 0.0 1.6 0.00 0.00 0.00 82 1009.0
20260509123018 13 360 0.0 1.6 0.00 0.00 0.00 82 1009.0
20260509122834 13 0 0.0 1.6 0.00 0.00 0.00 82 1009.0
20260509122734 13 0 0.0 1.6 0.00 0.00 0.00 82 1009.0
20260509122702 13 0 0.0 1.6 0.00 0.00 0.00 82 1009.0
20260509122633 13 0 0.0 1.6 0.00 0.00 0.00 82 1009.0
20260509122545 13 0 0.0 1.6 0.00 0.00 0.00 82 1009.0
20260509122541 13 0 0.0 1.6 0.00 0.00 0.00 82 1009.0
20260509122518 13 360 0.0 1.6 0.00 0.00 0.00 82 1009.0
20260509122331 13 0 0.0 1.6 0.00 0.00 0.00 82 1009.0
20260509122202 13 0 0.0 0.0 0.00 0.00 0.00 82 1009.0
20260509122130 13 0 0.0 0.0 0.00 0.00 0.00 82 1009.0
20260509122030 13 0 0.0 0.0 0.00 0.00 0.00 82 1008.9
20260509122018 13 360 0.0 0.0 0.00 0.00 0.00 82 1008.9
20260509121929 13 0 0.0 0.0 0.00 0.00 0.00 82 1008.9
20260509121829 12 0 0.0 0.0 0.00 0.00 0.00 83 1008.9
20260509121756 12 0 0.0 0.0 0.00 0.00 0.00 82 1008.9
20260509121751 12 0 0.0 0.0 0.00 0.00 0.00 83 1008.9
20260509121637 12 0 0.0 0.0 0.00 0.00 0.00 83 1008.9
20260509121518 12 360 0.0 0.0 0.00 0.00 0.00 83 1009.0
20260509121515 12 0 0.0 0.0 0.00 0.00 0.00 83 1008.9
20260509121511 12 0 0.0 0.0 0.00 0.00 0.00 83 1008.9
20260509121507 12 0 0.0 0.0 0.00 0.00 0.00 83 1008.9
20260509121459 12 0 0.0 0.0 0.00 0.00 0.00 83 1009.0
20260509121449 12 0 0.0 0.0 0.00 0.00 0.00 83 1008.9
20260509121049 12 0 0.0 0.0 0.00 0.00 0.00 83 1008.9
20260509121018 12 360 0.0 0.0 0.00 0.00 0.00 83 1008.9
20260509120934 12 0 0.0 0.0 0.00 0.00 0.00 83 1008.9
20260509120724 12 0 0.0 0.0 0.00 0.00 0.00 83 1008.9
20260509120658 12 0 0.0 0.0 0.00 0.00 0.00 83 1008.9
20260509120623 12 0 0.0 0.0 0.00 0.00 0.00 83 1008.9
20260509120537 12 0 0.0 0.0 0.00 0.00 0.00 83 1009.0
20260509120532 12 0 0.0 0.0 0.00 0.00 0.00 83 1009.0
20260509120517 12 360 0.0 0.0 0.00 0.00 0.00 83 1009.0
20260509120322 12 0 0.0 0.0 0.00 0.00 0.00 83 1009.0
20260509120222 12 0 0.0 0.0 0.00 0.00 0.00 83 1009.1
20260509120157 12 0 0.0 0.0 0.00 0.00 0.00 83 1009.0
20260509120122 12 0 0.0 0.0 0.00 0.00 0.00 83 1009.0
20260509120034 12 0 0.0 0.0 0.00 0.00 0.00 82 1009.1
20260509120030 12 0 0.0 0.0 0.00 0.00 0.00 83 1009.0
20260509120017 12 360 0.0 0.0 0.00 0.00 0.00 83 1009.1
20260509115819 12 0 0.0 0.0 0.00 0.00 0.00 82 1009.0
20260509115719 12 0 0.0 0.0 0.00 0.00 0.00 82 1009.0
20260509115656 12 0 0.0 0.0 0.00 0.00 0.00 82 1009.0
20260509115617 12 0 0.0 0.0 0.00 0.00 0.00 82 1009.0
20260509115517 12 360 0.0 0.0 0.00 0.00 0.00 82 1009.0
20260509115416 12 0 0.0 0.0 0.00 0.00 0.00 82 1009.0
20260509115316 12 0 0.0 0.0 0.00 0.00 0.00 82 1009.1
20260509115252 12 0 0.0 0.0 0.00 0.00 0.00 82 1009.0
20260509115248 12 0 0.0 0.0 0.00 0.00 0.00 82 1009.0
20260509115240 12 0 0.0 0.0 0.00 0.00 0.00 82 1009.0
20260509115234 12 0 0.0 0.0 0.00 0.00 0.00 82 1009.0
20260509115017 12 360 0.0 0.0 0.00 0.00 0.00 82 1009.0
20260509114916 12 0 0.0 0.0 0.00 0.00 0.00 82 1009.0
20260509114816 12 0 0.0 0.0 0.00 0.00 0.00 82 1009.0
20260509114715 12 0 0.0 0.0 0.00 0.00 0.00 82 1009.0
20260509114655 12 0 0.0 0.0 0.00 0.00 0.00 82 1009.0
20260509114614 12 0 0.0 0.0 0.00 0.00 0.00 82 1009.0
20260509114518 12 360 0.0 0.0 0.00 0.00 0.00 82 1009.0
20260509114514 12 0 0.0 0.0 0.00 0.00 0.00 82 1009.0
20260509114414 12 0 0.0 0.0 0.00 0.00 0.00 82 1009.0
20260509114326 12 0 0.0 0.0 0.00 0.00 0.00 82 1009.0
20260509114322 12 0 0.0 0.0 0.00 0.00 0.00 82 1009.0
20260509114155 12 0 0.0 0.0 0.00 0.00 0.00 82 1009.0
20260509114112 12 0 0.0 0.0 0.00 0.00 0.00 82 1009.0
20260509114017 12 360 0.0 0.0 0.00 0.00 0.00 82 1009.0
20260509114011 12 0 0.0 0.0 0.00 0.00 0.00 82 1009.0
20260509113911 12 0 0.0 0.0 0.00 0.00 0.00 82 1009.0
20260509113811 12 0 0.0 0.0 0.00 0.00 0.00 82 1009.0
20260509113710 12 0 0.0 0.0 0.00 0.00 0.00 82 1009.0
20260509113653 12 0 0.0 0.0 0.00 0.00 0.00 82 1009.0
20260509113609 12 0 0.0 0.0 0.00 0.00 0.00 82 1009.0
20260509113522 12 0 0.0 0.0 0.00 0.00 0.00 82 1009.0
20260509113519 12 360 0.0 0.0 0.00 0.00 0.00 82 1009.0
20260509113308 11 0 0.0 0.0 0.00 0.00 0.00 82 1009.0
20260509113208 11 0 0.0 0.0 0.00 0.00 0.00 82 1009.0
20260509113154 11 0 0.0 0.0 0.00 0.00 0.00 82 1009.0
20260509113120 11 0 0.0 0.0 0.00 0.00 0.00 82 1009.0
20260509113116 11 0 0.0 0.0 0.00 0.00 0.00 82 1009.0
20260509113018 12 360 0.0 0.0 0.00 0.00 0.00 82 1009.0
20260509112906 11 0 0.0 0.0 0.00 0.00 0.00 82 1009.0
20260509112806 11 0 0.0 0.0 0.00 0.00 0.00 82 1008.9
20260509112706 11 0 0.0 0.0 0.00 0.00 0.00 82 1009.0
20260509112652 11 0 0.0 0.0 0.00 0.00 0.00 82 1009.0
20260509112605 11 0 0.0 0.0 0.00 0.00 0.00 82 1009.0
20260509112533 12 360 0.0 0.0 0.00 0.00 0.00 82 1009.0
20260509112505 11 0 0.0 0.0 0.00 0.00 0.00 82 1009.0
20260509112417 11 0 0.0 0.0 0.00 0.00 0.00 82 1009.0
20260509112413 11 0 0.0 0.0 0.00 0.00 0.00 82 1009.0
20260509112203 11 0 0.0 0.0 0.00 0.00 0.00 82 1009.0
20260509112153 11 0 0.0 0.0 0.00 0.00 0.00 82 1009.0
20260509112103 11 0 0.0 0.0 0.00 0.00 0.00 82 1009.0
20260509112017 11 360 0.0 0.0 0.00 0.00 0.00 82 1009.1
20260509112003 11 0 0.0 0.0 0.00 0.00 0.00 82 1009.1
20260509111902 11 0 0.0 0.0 0.00 0.00 0.00 82 1009.0
20260509111802 11 0 0.0 0.0 0.00 0.00 0.00 82 1009.0
20260509111700 11 0 0.0 0.0 0.00 0.00 0.00 82 1009.0
20260509111650 11 0 0.0 0.0 0.00 0.00 0.00 82 1009.0
20260509111600 11 0 0.0 0.0 0.00 0.00 0.00 82 1009.0
20260509111517 11 360 0.0 0.0 0.00 0.00 0.00 82 1009.0
20260509111459 11 0 0.0 0.0 0.00 0.00 0.00 82 1009.0
20260509111359 11 0 0.0 0.0 0.00 0.00 0.00 82 1009.0
20260509111320 11 0 0.0 0.0 0.00 0.00 0.00 82 1009.0
20260509111313 11 0 0.0 0.0 0.00 0.00 0.00 82 1009.0
20260509111152 11 0 0.0 0.0 0.00 0.00 0.00 82 1009.0
20260509111111 11 0 0.0 0.0 0.00 0.00 0.00 82 1009.0
20260509111106 11 0 0.0 0.0 0.00 0.00 0.00 82 1009.0
20260509111017 11 360 0.0 0.0 0.00 0.00 0.00 82 1009.0
20260509110911 11 0 0.0 0.0 0.00 0.00 0.00 82 1009.0
20260509110856 11 0 0.0 0.0 0.00 0.00 0.00 82 1009.0
20260509110803 11 0 0.0 0.0 0.00 0.00 0.00 82 1009.0
20260509110754 11 0 0.0 0.0 0.00 0.00 0.00 82 1009.0
20260509110555 11 0 0.0 0.0 0.00 0.00 0.00 82 1009.0
20260509110518 11 360 0.0 0.0 0.00 0.00 0.00 82 1009.0
20260509110455 11 0 0.0 0.0 0.00 0.00 0.00 82 1009.0
20260509110354 11 0 0.0 0.0 0.00 0.00 0.00 82 1009.0
20260509110255 11 0 0.0 0.0 0.00 0.00 0.00 82 1009.0
20260509110148 11 0 0.0 0.0 0.00 0.00 0.00 82 1009.0
20260509110107 11 0 0.0 0.0 0.00 0.00 0.00 82 1009.0
20260509110017 11 360 0.0 0.0 0.00 0.00 0.00 82 1009.0
20260509105906 11 0 0.0 0.0 0.00 0.00 0.00 82 1009.0
20260509105902 11 0 0.0 0.0 0.00 0.00 0.00 82 1009.1
20260509105645 11 0 0.0 0.0 0.00 0.00 0.00 82 1009.0
20260509105551 11 0 0.0 0.0 0.00 0.00 0.00 82 1009.0
20260509105518 11 360 0.0 0.0 0.00 0.00 0.00 82 1009.0
20260509105452 11 0 0.0 0.0 0.00 0.00 0.00 82 1009.0
20260509105351 11 0 0.0 0.0 0.00 0.00 0.00 82 1009.0
20260509105250 11 0 0.0 0.0 0.00 0.00 0.00 82 1009.0
20260509105142 11 0 0.0 0.0 0.00 0.00 0.00 82 1009.0
20260509105049 11 0 0.0 0.0 0.00 0.00 0.00 82 1009.0
20260509105018 11 360 0.0 0.0 0.00 0.00 0.00 82 1009.0
20260509105011 11 0 0.0 0.0 0.00 0.00 0.00 82 1009.0
20260509105003 11 0 0.0 0.0 0.00 0.00 0.00 82 1009.1
20260509104958 11 0 0.0 0.0 0.00 0.00 0.00 82 1009.0
20260509104754 11 0 0.0 0.0 0.00 0.00 0.00 82 1009.1
20260509104745 11 0 0.0 0.0 0.00 0.00 0.00 82 1009.1
20260509104548 11 360 0.0 0.0 0.00 0.00 0.00 82 1009.1
20260509104447 11 0 0.0 0.0 0.00 0.00 0.00 82 1009.1
20260509104346 11 0 0.0 0.0 0.00 0.00 0.00 82 1009.1
20260509104245 11 0 0.0 0.0 0.00 0.00 0.00 82 1009.0
20260509104140 11 0 0.0 0.0 0.00 0.00 0.00 82 1009.0
20260509104051 11 0 0.0 0.0 0.00 0.00 0.00 82 1009.0
20260509104047 11 0 0.0 0.0 0.00 0.00 0.00 82 1009.0
20260509104043 11 0 0.0 0.0 0.00 0.00 0.00 82 1009.0
20260509104039 11 0 0.0 0.0 0.00 0.00 0.00 83 1009.0
20260509104035 11 0 0.0 0.0 0.00 0.00 0.00 82 1009.0
20260509104026 11 0 0.0 0.0 0.00 0.00 0.00 82 1009.1
20260509104017 11 360 0.0 0.0 0.00 0.00 0.00 82 1009.1
20260509103758 11 0 0.0 0.0 0.00 0.00 0.00 83 1009.0
20260509103548 11 360 0.0 0.0 0.00 0.00 0.00 82 1009.0
20260509103442 11 0 0.0 0.0 0.00 0.00 0.00 82 1009.0
20260509103410 11 0 0.0 0.0 0.00 0.00 0.00 82 1009.0
20260509103342 11 0 0.0 0.0 0.00 0.00 0.00 82 1008.9
20260509103312 11 0 0.0 0.0 0.00 0.00 0.00 82 1009.0
20260509103304 11 0 0.0 0.0 0.00 0.00 0.00 82 1009.0
20260509103255 11 0 0.0 0.0 0.00 0.00 0.00 82 1009.0
20260509103017 11 360 0.0 0.0 0.00 0.00 0.00 82 1008.9
20260509102939 11 0 0.0 0.0 0.00 0.00 0.00 82 1008.9
20260509102901 11 0 0.0 0.0 0.00 0.00 0.00 83 1009.0
20260509102839 11 0 0.0 0.0 0.00 0.00 0.00 82 1009.0
20260509102750 11 0 0.0 0.0 0.00 0.00 0.00 83 1009.0
20260509102741 11 0 0.0 0.0 0.00 0.00 0.00 83 1009.0
20260509102537 11 0 0.0 0.0 0.00 0.00 0.00 83 1008.9
20260509102518 11 360 0.0 0.0 0.00 0.00 0.00 82 1008.9
20260509102455 11 0 0.0 0.0 0.00 0.00 0.00 83 1008.9
20260509102450 11 0 0.0 0.0 0.00 0.00 0.00 83 1008.8
20260509102446 11 0 0.0 0.0 0.00 0.00 0.00 82 1008.9
20260509102247 11 0 0.0 0.0 0.00 0.00 0.00 83 1008.9
20260509102238 11 0 0.0 0.0 0.00 0.00 0.00 83 1008.8
20260509102035 11 0 0.0 0.0 0.00 0.00 0.00 83 1008.8
20260509102033 11 360 0.0 0.0 0.00 0.00 0.00 83 1008.8
20260509101935 11 0 0.0 0.0 0.00 0.00 0.00 83 1008.8
20260509101834 11 0 0.0 0.0 0.00 0.00 0.00 83 1008.9
20260509101734 11 0 0.0 0.0 0.00 0.00 0.00 83 1008.9
20260509101634 11 0 0.0 0.0 0.00 0.00 0.00 84 1008.9
20260509101533 11 0 0.0 0.0 0.00 0.00 0.00 84 1008.8
20260509101518 11 360 0.0 0.0 0.00 0.00 0.00 84 1008.8
20260509101430 11 0 0.0 0.0 0.00 0.00 0.00 83 1008.8
20260509101330 11 0 0.0 0.0 0.00 0.00 0.00 83 1008.8
20260509101228 11 0 0.0 0.0 0.00 0.00 0.00 83 1008.8
20260509101129 11 0 0.0 0.0 0.00 0.00 0.00 83 1008.8
20260509101033 11 360 0.0 0.0 0.00 0.00 0.00 83 1008.9
20260509101027 11 0 0.0 0.0 0.00 0.00 0.00 83 1008.9
20260509100927 11 0 0.0 0.0 0.00 0.00 0.00 83 1008.9
20260509100826 11 0 0.0 0.0 0.00 0.00 0.00 83 1008.9
20260509100726 11 0 0.0 0.0 0.00 0.00 0.00 83 1008.9
20260509100625 11 0 0.0 0.0 0.00 0.00 0.00 83 1008.9
20260509100525 11 0 0.0 0.0 0.00 0.00 0.00 83 1008.9
20260509100517 11 360 0.0 0.0 0.00 0.00 0.00 83 1008.9
20260509100424 11 0 0.0 0.0 0.00 0.00 0.00 83 1008.9
20260509100324 11 0 0.0 0.0 0.00 0.00 0.00 83 1008.9
20260509100224 11 0 0.0 0.0 0.00 0.00 0.00 83 1008.9
20260509100144 11 0 0.0 0.0 0.00 0.00 0.00 83 1008.9
20260509100133 11 0 0.0 0.0 0.00 0.00 0.00 83 1008.9
20260509100017 11 360 0.0 0.0 0.00 0.00 0.00 83 1008.9
20260509095923 11 0 0.0 0.0 0.00 0.00 0.00 83 1008.9
20260509095822 11 0 0.0 0.0 0.00 0.00 0.00 83 1008.9
20260509095722 11 0 0.0 0.0 0.00 0.00 0.00 83 1008.9
20260509095644 11 0 0.0 0.0 0.00 0.00 0.00 83 1008.8
20260509095631 11 0 0.0 0.0 0.00 0.00 0.00 83 1008.8
20260509095533 11 360 0.0 0.0 0.00 0.00 0.00 83 1008.9
20260509095421 11 0 0.0 0.0 0.00 0.00 0.00 82 1008.8
20260509095320 11 0 0.0 0.0 0.00 0.00 0.00 82 1008.9
20260509095220 11 0 0.0 0.0 0.00 0.00 0.00 82 1008.8
20260509095118 11 0 0.0 0.0 0.00 0.00 0.00 82 1008.8
20260509095018 11 360 0.0 0.0 0.00 0.00 0.00 82 1008.9
20260509094917 11 0 0.0 0.0 0.00 0.00 0.00 82 1008.8
20260509094817 11 0 0.0 0.0 0.00 0.00 0.00 82 1008.9
20260509094731 11 0 0.0 0.0 0.00 0.00 0.00 82 1008.9
20260509094722 11 0 0.0 0.0 0.00 0.00 0.00 82 1008.9
20260509094518 11 360 0.0 0.0 0.00 0.00 0.00 82 1009.0
20260509094516 11 0 0.0 0.0 0.00 0.00 0.00 82 1008.9
20260509094413 11 0 0.0 0.0 0.00 0.00 0.00 82 1008.9
20260509094313 11 0 0.0 0.0 0.00 0.00 0.00 81 1008.9
20260509094212 11 0 0.0 0.0 0.00 0.00 0.00 81 1008.9
20260509094111 11 0 0.0 0.0 0.00 0.00 0.00 81 1008.9
20260509094050 11 0 0.0 0.0 0.00 0.00 0.00 81 1008.8
20260509094042 11 0 0.0 0.0 0.00 0.00 0.00 81 1008.9
20260509094018 11 360 0.0 0.0 0.00 0.00 0.00 81 1009.0
20260509093929 11 0 0.0 0.0 0.00 0.00 0.00 81 1008.8
20260509093609 11 0 0.0 0.0 0.00 0.00 0.00 81 1008.9
20260509093517 11 360 0.0 0.0 0.00 0.00 0.00 81 1008.9
20260509093509 11 0 0.0 0.0 0.00 0.00 0.00 81 1008.8
20260509093410 11 0 0.0 0.0 0.00 0.00 0.00 81 1008.9
20260509093348 11 0 0.0 0.0 0.00 0.00 0.00 81 1008.9
20260509093308 11 0 0.0 0.0 0.00 0.00 0.00 81 1008.9
20260509093234 11 0 0.0 0.0 0.00 0.00 0.00 81 1008.9
20260509093108 11 0 0.0 0.0 0.00 0.00 0.00 81 1008.9
20260509093017 12 360 0.0 0.0 0.00 0.00 0.00 81 1009.0
20260509093007 11 0 0.0 0.0 0.00 0.00 0.00 81 1008.9
20260509092907 11 0 0.0 0.0 0.00 0.00 0.00 80 1008.9
20260509092848 11 0 0.0 0.0 0.00 0.00 0.00 80 1008.8
20260509092806 11 0 0.0 0.0 0.00 0.00 0.00 80 1008.8
20260509092733 11 0 0.0 0.0 0.00 0.00 0.00 80 1008.8
20260509092605 11 0 0.0 0.0 0.00 0.00 0.00 80 1008.8
20260509092518 12 360 0.0 0.0 0.00 0.00 0.00 80 1008.9
20260509092505 12 0 0.0 0.0 0.00 0.00 0.00 80 1008.8
20260509092417 12 0 0.0 0.0 0.00 0.00 0.00 80 1008.8
20260509092413 12 0 0.0 0.0 0.00 0.00 0.00 80 1008.8
20260509092204 12 0 0.0 0.0 0.00 0.00 0.00 80 1008.8
20260509092118 12 360 0.0 0.0 0.00 0.00 0.00 79 1008.9
20260509092103 12 0 0.0 0.0 0.00 0.00 0.00 79 1008.8
20260509092003 12 0 0.0 0.0 0.00 0.00 0.00 79 1008.8
20260509091903 12 0 0.0 0.0 0.00 0.00 0.00 79 1008.8
20260509091802 12 0 0.0 0.0 0.00 0.00 0.00 79 1008.9
20260509091701 12 0 0.0 0.0 0.00 0.00 0.00 79 1008.9
20260509091601 12 0 0.0 0.0 0.00 0.00 0.00 79 1008.9
20260509091517 12 360 0.0 0.0 0.00 0.00 0.00 79 1009.0
20260509091502 12 0 0.0 0.0 0.00 0.00 0.00 79 1008.9
20260509091400 12 0 0.0 0.0 0.00 0.00 0.00 78 1008.9
20260509091300 12 0 0.0 0.0 0.00 0.00 0.00 78 1008.9
20260509091159 12 0 0.0 0.0 0.00 0.00 0.00 78 1008.9
20260509091124 12 0 0.0 0.0 0.00 0.00 0.00 78 1008.9
20260509091058 12 0 0.0 0.0 0.00 0.00 0.00 78 1008.9
20260509091018 12 360 0.0 0.0 0.00 0.00 0.00 78 1009.0
20260509090958 12 0 0.0 0.0 0.00 0.00 0.00 78 1008.9
20260509090858 12 0 0.0 0.0 0.00 0.00 0.00 78 1008.9
20260509090757 12 0 0.0 0.0 0.00 0.00 0.00 78 1009.0
20260509090657 12 0 0.0 0.0 0.00 0.00 0.00 78 1009.0
20260509090622 12 0 0.0 0.0 0.00 0.00 0.00 78 1009.0
20260509090556 12 0 0.0 0.0 0.00 0.00 0.00 78 1009.0
20260509090517 12 360 0.0 0.0 0.00 0.00 0.00 78 1009.1
20260509090456 12 0 0.0 0.0 0.00 0.00 0.00 78 1009.0
20260509090430 12 0 0.0 0.0 0.00 0.00 0.00 78 1009.0
20260509090356 12 0 0.0 0.0 0.00 0.00 0.00 77 1009.0
20260509090327 12 0 0.0 0.0 0.00 0.00 0.00 78 1009.1
20260509090319 12 0 0.0 0.0 0.00 0.00 0.00 77 1009.0
20260509090310 12 0 0.0 0.0 0.00 0.00 0.00 78 1009.0
20260509090019 12 360 0.0 0.0 0.00 0.00 0.00 78 1009.2
20260509085955 12 0 0.0 0.0 0.00 0.00 0.00 78 1009.1
20260509085916 12 0 0.0 0.0 0.00 0.00 0.00 77 1009.1
20260509085802 12 0 0.0 0.0 0.00 0.00 0.00 77 1009.1
20260509085621 12 0 0.0 0.0 0.00 0.00 0.00 77 1009.1
20260509085553 12 0 0.0 0.0 0.00 0.00 0.00 77 1009.1
20260509085518 12 360 0.0 0.0 0.00 0.00 0.00 77 1009.2
20260509085453 12 0 0.0 0.0 0.00 0.00 0.00 77 1009.1
20260509085352 12 0 0.0 0.0 0.00 0.00 0.00 77 1009.1
20260509085252 12 0 0.0 0.0 0.00 0.00 0.00 76 1009.1
20260509085143 12 0 0.0 0.0 0.00 0.00 0.00 77 1009.1
20260509085135 12 0 0.0 0.0 0.00 0.00 0.00 76 1009.0
20260509085129 12 0 0.0 0.0 0.00 0.00 0.00 76 1009.1
20260509085125 12 0 0.0 0.0 0.00 0.00 0.00 76 1009.1
20260509085116 12 0 0.0 0.0 0.00 0.00 0.00 76 1009.1
20260509085018 12 360 0.0 0.0 0.00 0.00 0.00 77 1009.2
20260509084957 12 0 0.0 0.0 0.00 0.00 0.00 77 1009.0
20260509084948 12 0 0.0 0.0 0.00 0.00 0.00 77 1009.1
20260509084618 12 360 0.0 0.0 0.00 0.00 0.00 76 1009.2
20260509084514 12 0 0.0 0.0 0.00 0.00 0.00 76 1009.1
20260509084506 12 0 0.0 0.0 0.00 0.00 0.00 76 1009.1
20260509084120 12 0 0.0 0.0 0.00 0.00 0.00 75 1009.1
20260509084046 12 0 0.0 0.0 0.00 0.00 0.00 75 1009.1
20260509084018 12 360 0.0 0.0 0.00 0.00 0.00 75 1009.2
20260509083945 12 0 0.0 0.0 0.00 0.00 0.00 75 1009.1
20260509083845 12 0 0.0 0.0 0.00 0.00 0.00 75 1009.1
20260509083744 12 0 0.0 0.0 0.00 0.00 0.00 75 1009.1
20260509083618 12 0 0.0 0.0 0.00 0.00 0.00 75 1009.1
20260509083558 12 0 0.0 0.0 0.00 0.00 0.00 75 1009.1
20260509083553 12 0 0.0 0.0 0.00 0.00 0.00 75 1009.1
20260509083518 12 360 0.0 0.0 0.00 0.00 0.00 75 1009.2
20260509083343 12 0 0.0 0.0 0.00 0.00 0.00 75 1009.1
20260509083243 12 0 0.0 0.0 0.00 0.00 0.00 75 1009.1
20260509083116 12 0 0.0 0.0 0.00 0.00 0.00 75 1009.2
20260509083041 12 0 0.0 0.0 0.00 0.00 0.00 75 1009.2
20260509083019 12 360 0.0 0.0 0.00 0.00 0.00 75 1009.3
20260509082942 12 0 0.0 0.0 0.00 0.00 0.00 75 1009.2
20260509082840 12 0 0.0 0.0 0.00 0.00 0.00 75 1009.2
20260509082740 12 0 0.0 0.0 0.00 0.00 0.00 75 1009.2
20260509082617 12 0 0.0 0.0 0.00 0.00 0.00 75 1009.1
20260509082553 12 0 0.0 0.0 0.00 0.00 0.00 75 1009.1
20260509082547 12 0 0.0 0.0 0.00 0.00 0.00 75 1009.1
20260509082517 12 360 0.0 0.0 0.00 0.00 0.00 75 1009.2
20260509082338 12 0 0.0 0.0 0.00 0.00 0.00 75 1009.1
20260509082237 12 0 0.0 0.0 0.00 0.00 0.00 75 1009.1
20260509082117 12 0 0.0 0.0 0.00 0.00 0.00 75 1009.0
20260509082035 12 0 0.0 0.0 0.00 0.00 0.00 75 1009.1
20260509082018 12 360 0.0 0.0 0.00 0.00 0.00 75 1009.1
20260509081936 12 0 0.0 0.0 0.00 0.00 0.00 75 1009.0
20260509081835 12 0 0.0 0.0 0.00 0.00 0.00 75 1009.1
20260509081734 12 0 0.0 0.0 0.00 0.00 0.00 75 1009.0
20260509081616 12 0 0.0 0.0 0.00 0.00 0.00 75 1009.0
20260509081535 12 0 0.0 0.0 0.00 0.00 0.00 75 1009.0
20260509081517 12 360 0.0 0.0 0.00 0.00 0.00 75 1009.1
20260509081434 12 0 0.0 0.0 0.00 0.00 0.00 75 1009.0
20260509081334 12 0 0.0 0.0 0.00 0.00 0.00 75 1009.1
20260509081233 12 0 0.0 0.0 0.00 0.00 0.00 75 1009.1
20260509081156 12 0 0.0 1.6 0.00 0.00 0.00 74 1009.1
20260509081144 12 0 0.0 0.0 0.00 0.00 0.00 74 1009.1
20260509081032 12 360 0.0 1.6 0.00 0.00 0.00 74 1009.2
20260509080933 12 0 0.0 3.2 0.00 0.00 0.00 74 1009.1
20260509080832 12 0 0.0 3.2 0.00 0.00 0.00 74 1009.1
20260509080745 12 0 0.0 3.2 0.00 0.00 0.00 74 1009.1
20260509080739 12 0 0.0 3.2 0.00 0.00 0.00 74 1009.1
20260509080612 12 0 0.0 3.2 0.00 0.00 0.00 74 1009.2
20260509080529 12 0 0.0 3.2 0.00 0.00 0.00 74 1009.2
20260509080518 12 360 0.0 3.2 0.00 0.00 0.00 74 1009.3
20260509080430 12 0 0.0 3.2 0.00 0.00 0.00 74 1009.2
20260509080330 12 0 0.0 3.2 0.00 0.00 0.00 74 1009.3
20260509080229 12 0 0.0 3.2 0.00 0.00 0.00 74 1009.3
20260509080152 12 0 0.0 3.2 0.00 0.00 0.00 73 1009.3
20260509080144 12 0 0.0 3.2 0.00 0.00 0.00 73 1009.2
20260509080140 12 0 0.0 3.2 0.00 0.00 0.00 73 1009.3
20260509080019 12 360 1.6 3.2 0.00 0.00 0.00 73 1009.4
20260509075927 12 0 0.0 3.2 0.00 0.00 0.00 73 1009.3
20260509075826 12 0 0.0 3.2 0.00 0.00 0.00 73 1009.3
20260509075727 12 0 0.0 3.2 0.00 0.00 0.00 73 1009.3
20260509075712 12 0 0.0 0.0 0.00 0.00 0.00 73 1009.3
20260509075558 12 0 0.0 0.0 0.00 0.00 0.00 73 1009.3
20260509075518 12 360 0.0 0.0 0.00 0.00 0.00 73 1009.4
20260509075335 12 0 0.0 0.0 0.00 0.00 0.00 72 1009.3
20260509075110 12 0 0.0 0.0 0.00 0.00 0.00 72 1009.2
20260509075024 12 0 0.0 0.0 0.00 0.00 0.00 73 1009.2
20260509075018 12 360 0.0 0.0 0.00 0.00 0.00 73 1009.4
20260509074924 12 0 0.0 0.0 0.00 0.00 0.00 73 1009.3
20260509074823 12 0 0.0 0.0 0.00 0.00 0.00 73 1009.3
20260509074722 12 0 0.0 0.0 0.00 0.00 0.00 72 1009.2
20260509074622 12 0 0.0 0.0 0.00 0.00 0.00 72 1009.2
20260509074611 12 0 0.0 0.0 0.00 0.00 0.00 72 1009.3
20260509074603 12 360 0.0 0.0 0.00 0.00 0.00 72 1009.4
20260509074522 12 0 0.0 0.0 0.00 0.00 0.00 72 1009.3
20260509074421 12 0 0.0 0.0 0.00 0.00 0.00 72 1009.3
20260509074321 12 0 0.0 0.0 0.00 0.00 0.00 72 1009.2
20260509074220 12 0 0.0 0.0 0.00 0.00 0.00 71 1009.3
20260509074120 12 0 0.0 0.0 0.00 0.00 0.00 71 1009.3
20260509074114 12 0 0.0 0.0 0.00 0.00 0.00 70 1009.3
20260509074103 12 0 0.0 0.0 0.00 0.00 0.00 70 1009.3
20260509074019 12 360 0.0 0.0 0.00 0.00 0.00 70 1009.3
20260509073953 12 0 0.0 0.0 0.00 0.00 0.00 70 1009.1
20260509073949 12 0 0.0 0.0 0.00 0.00 0.00 70 1009.1
20260509073941 12 0 0.0 0.0 0.00 0.00 0.00 70 1009.2
20260509073713 12 0 0.0 0.0 0.00 0.00 0.00 70 1009.2
20260509073534 12 360 0.0 0.0 0.00 0.00 0.00 70 1009.3
20260509073529 12 0 0.0 0.0 0.00 0.00 0.00 69 1009.2
20260509073523 12 0 0.0 0.0 0.00 0.00 0.00 70 1009.1
20260509073329 12 0 0.0 0.0 0.00 0.00 0.00 69 1009.1
20260509073323 12 0 0.0 0.0 0.00 0.00 0.00 69 1009.1
20260509073109 12 0 0.0 0.0 0.00 0.00 0.00 69 1009.1
20260509073018 12 360 0.0 0.0 0.00 0.00 0.00 69 1009.2
20260509073012 12 0 0.0 0.0 0.00 0.00 0.00 69 1009.1
20260509072911 12 0 0.0 0.0 0.00 0.00 0.00 69 1009.1
20260509072810 13 0 0.0 0.0 0.00 0.00 0.00 69 1009.1
20260509072710 13 0 0.0 0.0 0.00 0.00 0.00 69 1009.2
20260509072609 13 0 0.0 0.0 0.00 0.00 0.00 69 1009.3
20260509072517 13 360 0.0 0.0 0.00 0.00 0.00 69 1009.5
20260509072508 13 0 0.0 0.0 0.00 0.00 0.00 69 1009.4
20260509072408 13 0 0.0 0.0 0.00 0.00 0.00 69 1009.3
20260509072308 13 0 0.0 0.0 0.00 0.00 0.00 69 1009.4
20260509072226 13 0 0.0 0.0 0.00 0.00 0.00 68 1009.3
20260509072221 13 0 0.0 0.0 0.00 0.00 0.00 68 1009.3
20260509072108 13 0 0.0 0.0 0.00 0.00 0.00 68 1009.3
20260509072017 13 360 0.0 0.0 0.00 0.00 0.00 68 1009.4
20260509072006 13 0 0.0 0.0 0.00 0.00 0.00 68 1009.3
20260509071905 13 0 0.0 0.0 0.00 0.00 0.00 68 1009.3
20260509071805 13 0 0.0 0.0 0.00 0.00 0.00 68 1009.3
20260509071704 13 0 0.0 0.0 0.00 0.00 0.00 67 1009.3
20260509071624 13 0 0.0 0.0 0.00 0.00 0.00 68 1009.3
20260509071620 13 0 0.0 0.0 0.00 0.00 0.00 67 1009.2
20260509071611 13 0 0.0 0.0 0.00 0.00 0.00 68 1009.3
20260509071600 13 0 0.0 0.0 0.00 0.00 0.00 68 1009.3
20260509071518 13 360 0.0 0.0 0.00 0.00 0.00 68 1009.4
20260509071452 13 0 0.0 0.0 0.00 0.00 0.00 67 1009.2
20260509071442 13 0 0.0 0.0 0.00 0.00 0.00 68 1009.2
20260509071324 13 0 0.0 0.0 0.00 0.00 0.00 68 1009.2
20260509071018 13 360 0.0 0.0 0.00 0.00 0.00 67 1009.3
20260509070900 13 0 0.0 0.0 0.00 0.00 0.00 67 1009.2
20260509070759 13 0 0.0 0.0 0.00 0.00 0.00 68 1009.2
20260509070659 13 0 0.0 0.0 0.00 0.00 0.00 67 1009.2
20260509070604 13 0 0.0 0.0 0.00 0.00 0.00 67 1009.3
20260509070557 13 0 0.0 0.0 0.00 0.00 0.00 67 1009.3
20260509070517 13 360 0.0 0.0 0.00 0.00 0.00 67 1009.4
20260509070457 13 0 0.0 0.0 0.00 0.00 0.00 67 1009.3
20260509070434 13 0 0.0 0.0 0.00 0.00 0.00 67 1009.3
20260509070256 13 0 0.0 0.0 0.00 0.00 0.00 67 1009.3
20260509070226 13 0 0.0 0.0 0.00 0.00 0.00 67 1009.3
20260509070218 13 0 0.0 0.0 0.00 0.00 0.00 67 1009.3
20260509070104 13 0 0.0 0.0 0.00 0.00 0.00 68 1009.3
20260509070048 13 360 0.0 0.0 0.00 0.00 0.00 67 1009.4
20260509065853 13 0 0.0 0.0 0.00 0.00 0.00 67 1009.4
20260509065753 13 0 0.0 0.0 0.00 0.00 0.00 67 1009.3
20260509065712 13 0 1.6 8.0 0.00 0.00 0.00 67 1009.4
20260509065707 13 0 0.0 0.0 0.00 0.00 0.00 67 1009.4
20260509065659 13 0 1.6 8.0 0.00 0.00 0.00 67 1009.4
20260509065517 13 360 0.0 12.9 0.00 0.00 0.00 67 1009.5
20260509065452 13 0 1.6 12.9 0.00 0.00 0.00 67 1009.4
20260509065350 13 0 1.6 12.9 0.00 0.00 0.00 67 1009.4
20260509065250 13 0 1.6 12.9 0.00 0.00 0.00 67 1009.4
20260509065150 13 0 1.6 12.9 0.00 0.00 0.00 67 1009.4
20260509065049 13 0 1.6 12.9 0.00 0.00 0.00 67 1009.4
20260509065018 13 360 0.0 12.9 0.00 0.00 0.00 67 1009.5
20260509064949 13 0 1.6 12.9 0.00 0.00 0.00 67 1009.4
20260509064847 13 0 1.6 12.9 0.00 0.00 0.00 68 1009.4
20260509064745 13 0 1.6 12.9 0.00 0.00 0.00 68 1009.4
20260509064646 13 0 0.0 12.9 0.00 0.00 0.00 68 1009.4
20260509064545 12 0 0.0 12.9 0.00 0.00 0.00 68 1009.4
20260509064518 12 360 12.9 12.9 0.00 0.00 0.00 69 1009.5
20260509064444 12 0 0.0 3.2 0.00 0.00 0.00 69 1009.4
20260509064344 12 0 0.0 3.2 0.00 0.00 0.00 69 1009.4
20260509064243 12 0 0.0 3.2 0.00 0.00 0.00 70 1009.4
20260509064142 12 0 0.0 3.2 0.00 0.00 0.00 71 1009.4
20260509064045 12 0 0.0 3.2 0.00 0.00 0.00 71 1009.4
20260509064036 12 0 0.0 3.2 0.00 0.00 0.00 71 1009.4
20260509064018 12 360 0.0 3.2 0.00 0.00 0.00 71 1009.5
20260509063927 12 0 0.0 3.2 0.00 0.00 0.00 73 1009.4
20260509063923 12 0 0.0 3.2 0.00 0.00 0.00 73 1009.4
20260509063914 12 0 0.0 3.2 0.00 0.00 0.00 71 1009.4
20260509063647 12 0 0.0 3.2 0.00 0.00 0.00 73 1009.4
20260509063517 12 360 0.0 3.2 0.00 0.00 0.00 74 1009.5
20260509063440 12 0 0.0 3.2 0.00 0.00 0.00 74 1009.4
20260509063340 12 0 0.0 3.2 0.00 0.00 0.00 74 1009.4
20260509063253 12 0 0.0 3.2 0.00 0.00 0.00 74 1009.4
20260509063248 12 0 0.0 3.2 0.00 0.00 0.00 74 1009.4
20260509063038 12 0 0.0 3.2 0.00 0.00 0.00 74 1009.4
20260509063018 12 360 0.0 1.6 0.00 0.00 0.00 74 1009.5
20260509062938 12 0 0.0 1.6 0.00 0.00 0.00 74 1009.4
20260509062837 12 0 0.0 1.6 0.00 0.00 0.00 75 1009.5
20260509062737 12 0 0.0 1.6 0.00 0.00 0.00 76 1009.5
20260509062635 12 0 0.0 1.6 0.00 0.00 0.00 76 1009.5
20260509062535 12 0 0.0 1.6 0.00 0.00 0.00 76 1009.5
20260509062519 12 360 0.0 0.0 0.00 0.00 0.00 76 1009.6
20260509062434 12 0 0.0 0.0 0.00 0.00 0.00 76 1009.5
20260509062335 12 0 0.0 0.0 0.00 0.00 0.00 75 1009.5
20260509062233 12 0 0.0 0.0 0.00 0.00 0.00 74 1009.6
20260509062145 12 0 0.0 0.0 0.00 0.00 0.00 74 1009.5
20260509062130 12 0 0.0 0.0 0.00 0.00 0.00 74 1009.6
20260509062022 12 0 0.0 0.0 0.00 0.00 0.00 74 1009.7
20260509062018 12 360 0.0 0.0 0.00 0.00 0.00 74 1009.7
20260509062013 12 0 0.0 0.0 0.00 0.00 0.00 74 1009.6
20260509061750 12 0 0.0 0.0 0.00 0.00 0.00 74 1009.6
20260509061633 12 0 0.0 0.0 0.00 0.00 0.00 74 1009.6
20260509061518 12 360 0.0 0.0 0.00 0.00 0.00 75 1009.7
20260509061425 12 0 0.0 0.0 0.00 0.00 0.00 76 1009.6
20260509061325 12 0 0.0 0.0 0.00 0.00 0.00 76 1009.6
20260509061225 12 0 0.0 0.0 0.00 0.00 0.00 75 1009.5
20260509061124 12 0 0.0 0.0 0.00 0.00 0.00 75 1009.7
20260509061038 12 0 0.0 0.0 0.00 0.00 0.00 75 1009.7
20260509061033 12 0 0.0 0.0 0.00 0.00 0.00 75 1009.6
20260509060823 12 0 0.0 0.0 0.00 0.00 0.00 75 1009.7
20260509060724 12 0 0.0 0.0 0.00 0.00 0.00 76 1009.8
20260509060623 12 0 0.0 0.0 0.00 0.00 0.00 76 1009.8
20260509060532 12 360 0.0 0.0 0.00 0.00 0.00 76 1009.8
20260509060522 12 0 0.0 0.0 0.00 0.00 0.00 76 1009.7
20260509060422 12 0 0.0 0.0 0.00 0.00 0.00 76 1009.7
20260509060322 12 0 0.0 0.0 0.00 0.00 0.00 75 1009.8
20260509060221 12 0 0.0 0.0 0.00 0.00 0.00 76 1009.8
20260509060122 12 0 0.0 0.0 0.00 0.00 0.00 76 1009.7
20260509060049 12 0 0.0 0.0 0.00 0.00 0.00 76 1009.8
20260509060033 12 360 0.0 0.0 0.00 0.00 0.00 77 1009.9
20260509060020 12 0 0.0 0.0 0.00 0.00 0.00 77 1009.8
20260509055919 12 0 0.0 0.0 0.00 0.00 0.00 77 1009.8
20260509055818 12 0 0.0 0.0 0.00 0.00 0.00 78 1009.8
20260509055718 12 0 0.0 0.0 0.00 0.00 0.00 77 1009.8
20260509055617 12 0 0.0 0.0 0.00 0.00 0.00 76 1009.8
20260509055550 12 0 0.0 0.0 0.00 0.00 0.00 76 1009.8
20260509055518 12 360 0.0 0.0 0.00 0.00 0.00 78 1009.9
20260509055516 12 0 0.0 0.0 0.00 0.00 0.00 78 1009.8
20260509055416 12 0 0.0 0.0 0.00 0.00 0.00 77 1009.8
20260509055314 12 0 0.0 0.0 0.00 0.00 0.00 77 1009.8
20260509055214 12 0 0.0 0.0 0.00 0.00 0.00 77 1009.8
20260509055129 12 0 0.0 0.0 0.00 0.00 0.00 77 1009.9
20260509055121 12 0 0.0 0.0 0.00 0.00 0.00 77 1009.9
20260509055018 12 360 0.0 0.0 0.00 0.00 0.00 77 1010.0
20260509054913 12 0 0.0 0.0 0.00 0.00 0.00 77 1009.9
20260509054826 12 0 0.0 0.0 0.00 0.00 0.00 78 1009.9
20260509054822 12 0 0.0 0.0 0.00 0.00 0.00 78 1009.9
20260509054640 12 0 0.0 0.0 0.00 0.00 0.00 78 1010.0
20260509054632 12 0 0.0 0.0 0.00 0.00 0.00 78 1010.0
20260509054533 12 360 0.0 0.0 0.00 0.00 0.00 78 1010.1
20260509054521 12 0 0.0 0.0 0.00 0.00 0.00 78 1010.0
20260509054311 12 0 0.0 0.0 0.00 0.00 0.00 77 1010.0
20260509054223 12 0 0.0 0.0 0.00 0.00 0.00 75 1010.0
20260509054219 12 0 0.0 0.0 0.00 0.00 0.00 77 1010.0
20260509054049 12 0 0.0 0.0 0.00 0.00 0.00 76 1010.0
20260509054018 12 360 0.0 0.0 0.00 0.00 0.00 76 1010.2
20260509054009 12 0 0.0 0.0 0.00 0.00 0.00 76 1010.1
20260509053909 12 0 0.0 0.0 0.00 0.00 0.00 75 1010.0
20260509053808 12 0 0.0 0.0 0.00 0.00 0.00 76 1010.0
20260509053707 12 0 0.0 0.0 0.00 0.00 0.00 76 1010.0
20260509053606 12 0 0.0 0.0 0.00 0.00 0.00 77 1010.0
20260509053546 12 0 0.0 0.0 0.00 0.00 0.00 77 1010.0
20260509053520 12 0 0.0 0.0 0.00 0.00 0.00 76 1010.0
20260509053515 12 0 0.0 0.0 0.00 0.00 0.00 76 1009.9
20260509053306 12 0 0.0 0.0 0.00 0.00 0.00 77 1010.0
20260509053205 12 0 0.0 0.0 0.00 0.00 0.00 77 1010.0
20260509053105 12 0 0.0 0.0 0.00 0.00 0.00 77 1010.1
20260509053045 12 0 0.0 0.0 0.00 0.00 0.00 77 1010.1
20260509053018 12 360 0.0 0.0 0.00 0.00 0.00 78 1010.1
20260509053004 12 0 0.0 0.0 0.00 0.00 0.00 78 1010.0
20260509052904 12 0 0.0 0.0 0.00 0.00 0.00 78 1010.1
20260509052804 12 0 0.0 0.0 0.00 0.00 0.00 78 1010.0
20260509052704 12 0 0.0 0.0 0.00 0.00 0.00 78 1010.0
20260509052622 12 0 0.0 0.0 0.00 0.00 0.00 78 1010.1
20260509052618 12 0 0.0 0.0 0.00 0.00 0.00 78 1010.0
20260509052613 12 0 0.0 0.0 0.00 0.00 0.00 78 1010.0
20260509052518 12 360 0.0 0.0 0.00 0.00 0.00 78 1010.2
20260509052403 12 0 0.0 0.0 0.00 0.00 0.00 78 1010.0
20260509052306 12 0 0.0 0.0 0.00 0.00 0.00 78 1010.0
20260509052202 12 0 0.0 0.0 0.00 0.00 0.00 79 1010.1
20260509052101 12 0 0.0 0.0 0.00 0.00 0.00 78 1010.1
20260509052041 12 0 0.0 0.0 0.00 0.00 0.00 78 1010.1
20260509052018 12 360 0.0 0.0 0.00 0.00 0.00 78 1010.1
20260509052014 12 0 0.0 0.0 0.00 0.00 0.00 78 1010.1
20260509052010 12 0 0.0 0.0 0.00 0.00 0.00 78 1010.0
20260509051801 12 0 0.0 0.0 0.00 0.00 0.00 78 1010.1
20260509051700 12 0 0.0 0.0 0.00 0.00 0.00 78 1010.1
20260509051540 12 0 0.0 0.0 0.00 0.00 0.00 77 1010.1
20260509051518 12 360 0.0 0.0 0.00 0.00 0.00 77 1010.3
20260509051500 12 0 0.0 0.0 0.00 0.00 0.00 77 1010.2
20260509051359 12 0 0.0 0.0 0.00 0.00 0.00 77 1010.1
20260509051258 12 0 0.0 0.0 0.00 0.00 0.00 77 1010.2
20260509051158 12 0 0.0 0.0 0.00 0.00 0.00 77 1010.1
20260509051039 12 0 0.0 0.0 0.00 0.00 0.00 77 1010.1
20260509051031 12 0 0.0 0.0 0.00 0.00 0.00 76 1010.2
20260509051027 12 0 0.0 0.0 0.00 0.00 0.00 76 1010.2
20260509051022 12 0 0.0 0.0 0.00 0.00 0.00 76 1010.1
20260509051018 12 360 0.0 0.0 0.00 0.00 0.00 77 1010.2
20260509050908 12 0 0.0 0.0 0.00 0.00 0.00 76 1010.2
20260509050859 12 0 0.0 0.0 0.00 0.00 0.00 76 1010.2
20260509050518 12 360 0.0 0.0 0.00 0.00 0.00 76 1010.3
20260509050454 12 0 0.0 0.0 0.00 0.00 0.00 76 1010.2
20260509050354 12 0 0.0 0.0 0.00 0.00 0.00 76 1010.2
20260509050302 12 0 0.0 0.0 0.00 0.00 0.00 76 1010.2
20260509050254 12 0 0.0 0.0 0.00 0.00 0.00 76 1010.2
20260509050153 12 0 0.0 0.0 0.00 0.00 0.00 76 1010.2
20260509050139 12 0 0.0 0.0 0.00 0.00 0.00 76 1010.2
20260509050018 12 360 0.0 0.0 0.00 0.00 0.00 76 1010.3
20260509050007 12 0 0.0 0.0 0.00 0.00 0.00 76 1010.2
20260509050001 12 0 0.0 0.0 0.00 0.00 0.00 76 1010.2
20260509045827 12 0 0.0 0.0 0.00 0.00 0.00 75 1010.2
20260509045753 12 0 0.0 0.0 0.00 0.00 0.00 75 1010.2
20260509045719 12 0 0.0 0.0 0.00 0.00 0.00 75 1010.2
20260509045715 12 0 0.0 0.0 0.00 0.00 0.00 75 1010.2
20260509045706 12 0 0.0 0.0 0.00 0.00 0.00 75 1010.2
20260509045517 12 360 0.0 0.0 0.00 0.00 0.00 75 1010.3
20260509045350 12 0 0.0 0.0 0.00 0.00 0.00 75 1010.2
20260509045255 12 0 0.0 0.0 0.00 0.00 0.00 75 1010.2
20260509045250 12 0 0.0 0.0 0.00 0.00 0.00 75 1010.2
20260509045149 12 0 0.0 0.0 0.00 0.00 0.00 75 1010.2
20260509045137 12 0 0.0 0.0 0.00 0.00 0.00 75 1010.2
20260509045018 12 360 0.0 0.0 0.00 0.00 0.00 75 1010.4
20260509044948 12 0 0.0 0.0 0.00 0.00 0.00 75 1010.3
20260509044848 12 0 0.0 0.0 0.00 0.00 0.00 75 1010.2
20260509044800 12 0 0.0 0.0 0.00 0.00 0.00 76 1010.3
20260509044756 12 0 0.0 0.0 0.00 0.00 0.00 76 1010.3
20260509044531 12 0 0.0 0.0 0.00 0.00 0.00 75 1010.3
20260509044518 12 360 0.0 0.0 0.00 0.00 0.00 76 1010.4
20260509044446 12 0 0.0 0.0 0.00 0.00 0.00 76 1010.3
20260509044343 12 0 0.0 0.0 0.00 0.00 0.00 77 1010.3
20260509044243 12 0 0.0 0.0 0.00 0.00 0.00 77 1010.3
20260509044142 12 0 0.0 0.0 0.00 0.00 0.00 77 1010.2
20260509044030 12 0 0.0 0.0 0.00 0.00 0.00 77 1010.3
20260509044018 12 360 0.0 0.0 0.00 0.00 0.00 77 1010.3
20260509043941 12 0 0.0 0.0 0.00 0.00 0.00 77 1010.2
20260509043840 12 0 0.0 0.0 0.00 0.00 0.00 77 1010.2
20260509043740 12 0 0.0 0.0 0.00 0.00 0.00 77 1010.2
20260509043640 12 0 0.0 0.0 0.00 0.00 0.00 77 1010.2
20260509043602 12 0 0.0 0.0 0.00 0.00 0.00 77 1010.2
20260509043547 12 0 0.0 0.0 0.00 0.00 0.00 77 1010.2
20260509043519 12 360 0.0 0.0 0.00 0.00 0.00 77 1010.3
20260509043337 12 0 0.0 0.0 0.00 0.00 0.00 77 1010.1
20260509043237 12 0 0.0 0.0 0.00 0.00 0.00 77 1010.1
20260509043136 12 0 0.0 0.0 0.00 0.00 0.00 78 1010.0
20260509043028 12 0 0.0 0.0 0.00 0.00 0.00 78 1010.0
20260509043018 12 360 0.0 0.0 0.00 0.00 0.00 78 1010.1
20260509042935 12 0 0.0 0.0 0.00 0.00 0.00 78 1010.0
20260509042848 12 0 0.0 0.0 0.00 0.00 0.00 78 1010.0
20260509042843 12 0 0.0 0.0 0.00 0.00 0.00 78 1010.0
20260509042634 12 0 0.0 0.0 0.00 0.00 0.00 79 1010.0
20260509042527 12 0 0.0 0.0 0.00 0.00 0.00 79 1010.0
20260509042518 12 360 0.0 0.0 0.00 0.00 0.00 79 1010.1
20260509042433 12 0 0.0 0.0 0.00 0.00 0.00 79 1010.0
20260509042332 12 0 0.0 0.0 0.00 0.00 0.00 78 1010.1
20260509042232 12 0 0.0 0.0 0.00 0.00 0.00 78 1010.1
20260509042129 12 0 0.0 0.0 0.00 0.00 0.00 78 1010.2
20260509042113 12 0 0.0 0.0 0.00 0.00 0.00 76 1010.3
20260509042100 12 0 0.0 0.0 0.00 0.00 0.00 77 1010.1
20260509042018 12 360 0.0 0.0 0.00 0.00 0.00 76 1010.3
20260509041946 12 0 0.0 0.0 0.00 0.00 0.00 76 1010.2
20260509041628 12 0 0.0 0.0 0.00 0.00 0.00 76 1010.2
20260509041548 12 360 0.0 0.0 0.00 0.00 0.00 76 1010.3
20260509041527 12 0 0.0 0.0 0.00 0.00 0.00 76 1010.2
20260509041428 12 0 0.0 0.0 0.00 0.00 0.00 75 1010.2
20260509041327 12 0 0.0 0.0 0.00 0.00 0.00 75 1010.2
20260509041227 12 0 0.0 0.0 0.00 0.00 0.00 74 1010.2
20260509041127 12 0 0.0 0.0 0.00 0.00 0.00 74 1010.1
20260509041025 12 0 0.0 0.0 0.00 0.00 0.00 74 1010.1
20260509041017 12 360 0.0 0.0 0.00 0.00 0.00 73 1010.2
20260509040959 12 0 0.0 0.0 0.00 0.00 0.00 73 1010.1
20260509040823 12 0 0.0 0.0 0.00 0.00 0.00 74 1010.2
20260509040751 12 0 0.0 0.0 0.00 0.00 0.00 75 1010.1
20260509040747 12 0 0.0 0.0 0.00 0.00 0.00 74 1010.2
20260509040738 12 0 0.0 0.0 0.00 0.00 0.00 75 1010.1
20260509040518 12 360 0.0 0.0 0.00 0.00 0.00 75 1010.1
20260509040435 12 0 0.0 0.0 0.00 0.00 0.00 74 1010.1
20260509040431 12 0 0.0 0.0 0.00 0.00 0.00 75 1010.0
20260509040221 12 0 0.0 0.0 0.00 0.00 0.00 75 1010.1
20260509040121 12 0 0.0 0.0 0.00 0.00 0.00 75 1010.1
20260509040048 12 360 0.0 0.0 0.00 0.00 0.00 75 1010.3
20260509040020 12 0 0.0 0.0 0.00 0.00 0.00 75 1010.1
20260509035920 12 0 0.0 0.0 0.00 0.00 0.00 74 1010.2
20260509035840 12 0 0.0 0.0 0.00 0.00 0.00 74 1010.2
20260509035726 12 0 0.0 0.0 0.00 0.00 0.00 75 1010.2
20260509035517 12 0 0.0 0.0 0.00 0.00 0.00 75 1010.2
20260509035416 12 0 0.0 0.0 0.00 0.00 0.00 75 1010.2
20260509035336 12 0 0.0 0.0 0.00 0.00 0.00 75 1010.2
20260509035223 12 0 0.0 0.0 0.00 0.00 0.00 76 1010.2
20260509035018 13 360 0.0 0.0 0.00 0.00 0.00 76 1010.3
20260509035014 13 0 0.0 0.0 0.00 0.00 0.00 76 1010.2
20260509034913 13 0 0.0 0.0 0.00 0.00 0.00 76 1010.2
20260509034814 13 0 0.0 0.0 0.00 0.00 0.00 76 1010.3
20260509034712 13 0 0.0 0.0 0.00 0.00 0.00 76 1010.2
20260509034632 13 0 0.0 0.0 0.00 0.00 0.00 76 1010.3
20260509034628 13 0 0.0 0.0 0.00 0.00 0.00 76 1010.3
20260509034624 13 0 0.0 0.0 0.00 0.00 0.00 76 1010.3
20260509034620 13 0 0.0 0.0 0.00 0.00 0.00 77 1010.3
20260509034605 13 0 0.0 0.0 0.00 0.00 0.00 77 1010.3
20260509034519 13 360 0.0 0.0 0.00 0.00 0.00 77 1010.4
20260509034452 13 0 0.0 0.0 0.00 0.00 0.00 77 1010.3
20260509034115 13 0 0.0 0.0 0.00 0.00 0.00 76 1010.3
20260509034017 13 360 0.0 0.0 0.00 0.00 0.00 77 1010.4
20260509033909 13 0 0.0 0.0 0.00 0.00 0.00 77 1010.3
20260509033809 13 0 0.0 0.0 0.00 0.00 0.00 77 1010.3
20260509033708 13 0 0.0 0.0 0.00 0.00 0.00 77 1010.3
20260509033636 13 0 0.0 0.0 0.00 0.00 0.00 76 1010.3
20260509033522 13 0 0.0 0.0 0.00 0.00 0.00 76 1010.3
20260509033518 13 360 0.0 0.0 0.00 0.00 0.00 76 1010.5
20260509033307 13 0 0.0 0.0 0.00 0.00 0.00 75 1010.4
20260509033242 13 0 0.0 0.0 0.00 0.00 0.00 75 1010.4
20260509033207 13 0 0.0 0.0 0.00 0.00 0.00 75 1010.4
20260509033130 13 0 0.0 0.0 0.00 0.00 0.00 75 1010.4
20260509033019 13 360 0.0 0.0 0.00 0.00 0.00 75 1010.4
20260509033016 13 0 0.0 0.0 0.00 0.00 0.00 75 1010.3
20260509033006 13 0 0.0 0.0 0.00 0.00 0.00 73 1010.4
20260509032857 13 0 0.0 0.0 0.00 0.00 0.00 71 1010.4
20260509032849 13 0 0.0 0.0 0.00 0.00 0.00 73 1010.4
20260509032735 13 0 0.0 0.0 0.00 0.00 0.00 72 1010.4
20260509032517 13 360 0.0 0.0 0.00 0.00 0.00 71 1010.5
20260509032511 13 0 0.0 0.0 0.00 0.00 0.00 71 1010.4
20260509032306 13 0 0.0 0.0 0.00 0.00 0.00 70 1010.4
20260509032235 13 0 0.0 0.0 0.00 0.00 0.00 70 1010.5
20260509032231 13 0 0.0 0.0 0.00 0.00 0.00 70 1010.5
20260509032225 13 0 0.0 0.0 0.00 0.00 0.00 70 1010.5
20260509032107 13 0 0.0 0.0 0.00 0.00 0.00 70 1010.5
20260509032018 13 360 0.0 0.0 0.00 0.00 0.00 70 1010.6
20260509031901 13 0 0.0 0.0 0.00 0.00 0.00 70 1010.5
20260509031759 13 0 0.0 0.0 0.00 0.00 0.00 71 1010.5
20260509031741 13 0 0.0 0.0 0.00 0.00 0.00 71 1010.5
20260509031659 13 0 0.0 0.0 0.00 0.00 0.00 72 1010.5
20260509031624 13 0 0.0 0.0 0.00 0.00 0.00 72 1010.5
20260509031518 13 360 0.0 0.0 0.00 0.00 0.00 71 1010.6
20260509031459 13 0 0.0 0.0 0.00 0.00 0.00 71 1010.5
20260509031411 13 0 0.0 0.0 0.00 0.00 0.00 71 1010.5
20260509031407 13 0 0.0 0.0 0.00 0.00 0.00 71 1010.5
20260509031158 13 0 0.0 0.0 0.00 0.00 0.00 71 1010.5
20260509031056 13 0 0.0 0.0 0.00 0.00 0.00 70 1010.4
20260509031017 13 360 0.0 0.0 0.00 0.00 0.00 70 1010.5
20260509031015 13 0 0.0 0.0 0.00 0.00 0.00 70 1010.4
20260509030954 13 0 0.0 0.0 0.00 0.00 0.00 70 1010.4
20260509030943 13 0 0.0 0.0 0.00 0.00 0.00 69 1010.3
20260509030830 13 0 0.0 0.0 0.00 0.00 0.00 67 1010.3
20260509030558 13 0 0.0 0.0 0.00 0.00 0.00 68 1010.2
20260509030518 13 360 0.0 0.0 0.00 0.00 0.00 68 1010.3
20260509030353 13 0 0.0 0.0 0.00 0.00 0.00 69 1010.2
20260509030253 13 0 0.0 0.0 0.00 0.00 0.00 70 1010.1
20260509030152 13 0 0.0 0.0 0.00 0.00 0.00 72 1010.1
20260509030052 13 0 0.0 0.0 0.00 0.00 0.00 72 1010.1
20260509030018 13 360 0.0 0.0 0.00 0.00 0.00 72 1010.2
20260509030014 13 0 0.0 0.0 0.00 0.00 0.00 72 1010.1
20260509025950 13 0 0.0 0.0 0.00 0.00 0.00 72 1010.1
20260509025849 13 0 0.0 0.0 0.00 0.00 0.00 72 1010.1
20260509025748 13 0 0.0 0.0 0.00 0.00 0.00 72 1010.1
20260509025648 13 0 0.0 0.0 0.00 0.00 0.00 73 1010.1
20260509025548 13 0 0.0 0.0 0.00 0.00 0.00 73 1010.1
20260509025518 13 360 0.0 0.0 0.00 0.00 0.00 73 1010.2
20260509025513 13 0 0.0 0.0 0.00 0.00 0.00 73 1010.1
20260509025447 13 0 0.0 0.0 0.00 0.00 0.00 74 1010.1
20260509025351 13 0 0.0 0.0 0.00 0.00 0.00 74 1010.1
20260509025342 13 0 0.0 0.0 0.00 0.00 0.00 72 1010.1
20260509025146 13 0 0.0 0.0 0.00 0.00 0.00 72 1010.2
20260509025120 13 0 0.0 0.0 0.00 0.00 0.00 72 1010.2
20260509025103 13 360 0.0 0.0 0.00 0.00 0.00 72 1010.4
20260509024942 13 0 0.0 0.0 0.00 0.00 0.00 72 1010.3
20260509024856 13 0 0.0 0.0 0.00 0.00 0.00 72 1010.2
20260509024852 13 0 0.0 0.0 0.00 0.00 0.00 72 1010.2
20260509024718 13 0 0.0 0.0 0.00 0.00 0.00 71 1010.2
20260509024714 13 0 0.0 0.0 0.00 0.00 0.00 71 1010.2
20260509024708 13 0 0.0 0.0 0.00 0.00 0.00 72 1010.2
20260509024551 13 0 0.0 0.0 0.00 0.00 0.00 71 1010.2
20260509024518 13 360 0.0 0.0 0.00 0.00 0.00 71 1010.3
20260509024435 13 0 0.0 0.0 0.00 0.00 0.00 72 1010.3
20260509024326 13 0 0.0 0.0 0.00 0.00 0.00 70 1010.2
20260509024319 13 0 0.0 0.0 0.00 0.00 0.00 70 1010.2
20260509024314 13 0 0.0 0.0 0.00 0.00 0.00 71 1010.3
20260509024305 13 0 0.0 0.0 0.00 0.00 0.00 71 1010.3
20260509024033 13 360 0.0 0.0 0.00 0.00 0.00 70 1010.3
20260509023852 13 0 0.0 0.0 0.00 0.00 0.00 70 1010.2
20260509023848 13 0 0.0 0.0 0.00 0.00 0.00 70 1010.2
20260509023638 13 0 0.0 0.0 0.00 0.00 0.00 70 1010.2
20260509023518 13 360 0.0 0.0 0.00 0.00 0.00 70 1010.4
20260509023510 13 0 0.0 0.0 0.00 0.00 0.00 70 1010.3
20260509023437 13 0 0.0 0.0 0.00 0.00 0.00 70 1010.3
20260509023337 13 0 0.0 0.0 0.00 0.00 0.00 68 1010.2
20260509023237 13 0 0.0 0.0 0.00 0.00 0.00 68 1010.3
20260509023136 13 0 0.0 0.0 0.00 0.00 0.00 68 1010.3
20260509023129 13 0 0.0 0.0 0.00 0.00 0.00 68 1010.3
20260509023113 13 0 0.0 0.0 0.00 0.00 0.00 68 1010.3
20260509023019 13 360 0.0 0.0 0.00 0.00 0.00 68 1010.4
20260509022847 13 0 0.0 0.0 0.00 0.00 0.00 69 1010.3
20260509022843 13 0 0.0 0.0 0.00 0.00 0.00 68 1010.3
20260509022834 13 0 0.0 0.0 0.00 0.00 0.00 68 1010.3
20260509022517 13 360 0.0 0.0 0.00 0.00 0.00 69 1010.4
20260509022446 13 0 0.0 0.0 0.00 0.00 0.00 69 1010.3
20260509022442 13 0 0.0 0.0 0.00 0.00 0.00 69 1010.3
20260509022232 13 0 0.0 0.0 0.00 0.00 0.00 68 1010.3
20260509022132 13 0 0.0 0.0 0.00 0.00 0.00 66 1010.4
20260509022033 13 360 0.0 0.0 0.00 0.00 0.00 64 1010.6
20260509022006 13 0 0.0 0.0 0.00 0.00 0.00 64 1010.5
20260509021932 13 0 0.0 0.0 0.00 0.00 0.00 63 1010.5
20260509021832 13 0 0.0 0.0 0.00 0.00 0.00 65 1010.4
20260509021730 13 0 0.0 0.0 0.00 0.00 0.00 65 1010.4
20260509021630 13 0 0.0 0.0 0.00 0.00 0.00 66 1010.4
20260509021530 13 0 0.0 0.0 0.00 0.00 0.00 66 1010.3
20260509021518 14 360 0.0 0.0 0.00 0.00 0.00 66 1010.5
20260509021505 14 0 0.0 0.0 0.00 0.00 0.00 66 1010.4
20260509021430 14 0 0.0 0.0 0.00 0.00 0.00 66 1010.4
20260509021330 14 0 0.0 0.0 0.00 0.00 0.00 66 1010.3
20260509021228 14 0 0.0 0.0 0.00 0.00 0.00 67 1010.3
20260509021155 14 0 0.0 0.0 0.00 0.00 0.00 67 1010.2
20260509021033 14 0 0.0 0.0 0.00 0.00 0.00 68 1010.2
20260509021018 14 360 0.0 0.0 0.00 0.00 0.00 68 1010.3
20260509020825 14 0 0.0 0.0 0.00 0.00 0.00 67 1010.2
20260509020725 14 0 0.0 0.0 0.00 0.00 0.00 66 1010.2
20260509020653 14 0 0.0 0.0 0.00 0.00 0.00 65 1010.3
20260509020532 14 0 0.0 0.0 0.00 0.00 0.00 66 1010.3
20260509020519 14 360 0.0 0.0 0.00 0.00 0.00 66 1010.4
20260509020325 14 0 0.0 0.0 0.00 0.00 0.00 65 1010.2
20260509020224 14 0 0.0 0.0 0.00 0.00 0.00 65 1010.2
20260509020137 14 0 0.0 0.0 0.00 0.00 0.00 65 1010.2
20260509020133 14 0 0.0 0.0 0.00 0.00 0.00 65 1010.2
20260509020017 14 360 0.0 0.0 0.00 0.00 0.00 66 1010.3
20260509020004 14 0 0.0 0.0 0.00 0.00 0.00 66 1010.2
20260509015923 14 0 0.0 0.0 0.00 0.00 0.00 65 1010.2
20260509015822 14 0 0.0 0.0 0.00 0.00 0.00 65 1010.1
20260509015721 14 0 0.0 0.0 0.00 0.00 0.00 64 1010.2
20260509015620 14 0 0.0 0.0 0.00 0.00 0.00 64 1010.1
20260509015520 14 0 0.0 0.0 0.00 0.00 0.00 64 1010.1
20260509015518 14 360 0.0 0.0 0.00 0.00 0.00 64 1010.2
20260509015503 14 0 0.0 0.0 0.00 0.00 0.00 64 1010.2
20260509015433 14 0 0.0 0.0 0.00 0.00 0.00 64 1010.1
20260509015429 14 0 0.0 0.0 0.00 0.00 0.00 64 1010.2
20260509015223 14 0 0.0 0.0 0.00 0.00 0.00 63 1010.0
20260509015219 14 0 0.0 0.0 0.00 0.00 0.00 64 1010.1
20260509015118 14 0 0.0 0.0 0.00 0.00 0.00 64 1010.0
20260509015109 14 0 0.0 0.0 0.00 0.00 0.00 63 1010.0
20260509015017 14 360 0.0 0.0 0.00 0.00 0.00 63 1010.0
20260509014918 14 0 0.0 0.0 0.00 0.00 0.00 63 1010.0
20260509014818 14 0 0.0 0.0 0.00 0.00 0.00 61 1010.0
20260509014718 14 0 0.0 0.0 0.00 0.00 0.00 61 1010.0
20260509014617 14 0 0.0 0.0 0.00 0.00 0.00 60 1010.0
20260509014531 14 0 0.0 0.0 0.00 0.00 0.00 57 1010.0
20260509014523 14 0 0.0 0.0 0.00 0.00 0.00 57 1009.9
20260509014518 14 360 0.0 0.0 0.00 0.00 0.00 57 1009.9
20260509014316 14 0 0.0 0.0 0.00 0.00 0.00 57 1009.9
20260509014215 14 0 0.0 0.0 0.00 0.00 0.00 58 1009.9
20260509014115 14 0 0.0 0.0 0.00 0.00 0.00 59 1010.0
20260509014033 14 0 0.0 0.0 0.00 0.00 0.00 60 1009.9
20260509014029 14 0 0.0 0.0 0.00 0.00 0.00 59 1010.0
20260509014024 14 0 0.0 0.0 0.00 0.00 0.00 59 1009.9
20260509014018 14 360 0.0 0.0 0.00 0.00 0.00 59 1009.9
20260509013814 14 0 0.0 0.0 0.00 0.00 0.00 60 1009.9
20260509013733 14 0 0.0 0.0 0.00 0.00 0.00 62 1009.9
20260509013728 14 0 0.0 0.0 0.00 0.00 0.00 62 1009.8
20260509013724 14 0 0.0 0.0 0.00 0.00 0.00 61 1009.9
20260509013606 14 0 0.0 0.0 0.00 0.00 0.00 62 1009.9
20260509013532 14 360 0.0 0.0 0.00 0.00 0.00 62 1009.9
20260509013411 14 0 0.0 0.0 0.00 0.00 0.00 63 1009.9
20260509013311 14 0 0.0 0.0 0.00 0.00 0.00 63 1009.9
20260509013224 14 0 0.0 0.0 0.00 0.00 0.00 63 1009.9
20260509013219 14 0 0.0 0.0 0.00 0.00 0.00 64 1009.9
20260509013018 14 360 0.0 0.0 0.00 0.00 0.00 62 1009.8
20260509013010 14 0 0.0 0.0 0.00 0.00 0.00 62 1009.9
20260509012959 14 0 0.0 0.0 0.00 0.00 0.00 62 1009.9
20260509012910 14 0 0.0 0.0 0.00 0.00 0.00 62 1009.9
20260509012810 14 0 0.0 0.0 0.00 0.00 0.00 62 1009.9
20260509012716 14 0 0.0 0.0 0.00 0.00 0.00 62 1009.8
20260509012710 14 0 0.0 0.0 0.00 0.00 0.00 63 1009.9
20260509012611 14 0 0.0 0.0 0.00 0.00 0.00 63 1009.8
20260509012602 14 0 0.0 0.0 0.00 0.00 0.00 62 1009.8
20260509012517 15 360 0.0 0.0 0.00 0.00 0.00 62 1009.8
20260509012408 14 0 0.0 0.0 0.00 0.00 0.00 62 1009.8
20260509012334 15 0 0.0 0.0 0.00 0.00 0.00 64 1009.8
20260509012330 15 0 0.0 0.0 0.00 0.00 0.00 64 1009.9
20260509012325 15 0 0.0 0.0 0.00 0.00 0.00 63 1009.8
20260509012021 15 0 0.0 0.0 0.00 0.00 0.00 62 1009.8
20260509012018 15 360 0.0 0.0 0.00 0.00 0.00 62 1009.8
20260509011806 15 0 0.0 0.0 0.00 0.00 0.00 62 1009.8
20260509011706 15 0 0.0 0.0 0.00 0.00 0.00 62 1009.8
20260509011604 15 360 0.0 0.0 0.00 0.00 0.00 64 1009.7
20260509011531 15 0 0.0 0.0 0.00 0.00 0.00 64 1009.6
20260509011526 15 0 0.0 0.0 0.00 0.00 0.00 64 1009.7
20260509011522 15 0 0.0 0.0 0.00 0.00 0.00 64 1009.7
20260509011201 15 0 0.0 0.0 0.00 0.00 0.00 64 1009.7
20260509011101 15 0 0.0 0.0 0.00 0.00 0.00 65 1009.6
20260509011017 15 360 0.0 0.0 0.00 0.00 0.00 64 1009.6
20260509011001 15 0 0.0 0.0 0.00 0.00 0.00 64 1009.6
20260509010953 15 0 0.0 0.0 0.00 0.00 0.00 64 1009.6
20260509010914 15 0 0.0 0.0 0.00 0.00 0.00 59 1009.6
20260509010910 15 0 0.0 0.0 0.00 0.00 0.00 63 1009.6
20260509010700 15 0 0.0 0.0 0.00 0.00 0.00 59 1009.6
20260509010600 15 0 0.0 0.0 0.00 0.00 0.00 59 1009.6
20260509010517 15 360 0.0 0.0 0.00 0.00 0.00 60 1009.6
20260509010453 15 0 0.0 0.0 0.00 0.00 0.00 60 1009.6
20260509010400 15 0 0.0 0.0 0.00 0.00 0.00 61 1009.6
20260509010259 15 0 0.0 0.0 0.00 0.00 0.00 61 1009.5
20260509010159 15 0 0.0 0.0 0.00 0.00 0.00 60 1009.5
20260509010111 15 0 0.0 0.0 0.00 0.00 0.00 62 1009.5
20260509010107 15 0 0.0 0.0 0.00 0.00 0.00 61 1009.5
20260509010019 15 360 0.0 0.0 0.00 0.00 0.00 62 1009.5
20260509005954 15 0 0.0 0.0 0.00 0.00 0.00 62 1009.5
20260509005856 15 0 0.0 0.0 0.00 0.00 0.00 64 1009.5
20260509005755 15 0 0.0 0.0 0.00 0.00 0.00 67 1009.5
20260509005655 15 0 0.0 0.0 0.00 0.00 0.00 66 1009.5
20260509005554 15 0 0.0 0.0 0.00 0.00 0.00 66 1009.5
20260509005548 15 360 0.0 0.0 0.00 0.00 0.00 66 1009.3
20260509005453 15 0 0.0 0.0 0.00 0.00 0.00 66 1009.4
20260509005353 15 0 0.0 0.0 0.00 0.00 0.00 66 1009.5
20260509005253 15 0 0.0 0.0 0.00 0.00 0.00 66 1009.4
20260509005233 15 0 0.0 0.0 0.00 0.00 0.00 65 1009.3
20260509005153 15 0 0.0 0.0 0.00 0.00 0.00 66 1009.4
20260509005133 15 0 0.0 0.0 0.00 0.00 0.00 65 1009.3
20260509005129 15 0 0.0 0.0 0.00 0.00 0.00 64 1009.3
20260509005123 15 0 0.0 0.0 0.00 0.00 0.00 66 1009.4
20260509005114 15 0 0.0 0.0 0.00 0.00 0.00 65 1009.3
20260509005018 15 360 0.0 0.0 0.00 0.00 0.00 65 1009.2
20260509004704 15 0 0.0 0.0 0.00 0.00 0.00 64 1009.3
20260509004700 15 0 0.0 0.0 0.00 0.00 0.00 64 1009.2
20260509004517 15 360 0.0 0.0 0.00 0.00 0.00 63 1009.1
20260509004448 15 0 0.0 0.0 0.00 0.00 0.00 63 1009.2
20260509004350 15 0 0.0 0.0 0.00 0.00 0.00 63 1009.2
20260509004249 15 0 0.0 0.0 0.00 0.00 0.00 62 1009.2
20260509004206 15 0 0.0 0.0 0.00 0.00 0.00 61 1009.1
20260509004149 15 0 0.0 0.0 0.00 0.00 0.00 62 1009.1
20260509004100 15 0 0.0 0.0 0.00 0.00 0.00 61 1009.1
20260509004051 15 0 0.0 0.0 0.00 0.00 0.00 61 1009.1
20260509004018 15 360 0.0 0.0 0.00 0.00 0.00 61 1009.0
20260509003848 15 0 0.0 0.0 0.00 0.00 0.00 61 1009.1
20260509003746 15 0 0.0 0.0 0.00 0.00 0.00 61 1009.0
20260509003646 15 0 0.0 0.0 0.00 0.00 0.00 62 1009.1
20260509003546 15 0 0.0 0.0 0.00 0.00 0.00 62 1009.0
20260509003518 15 360 0.0 0.0 0.00 0.00 0.00 62 1008.9
20260509003443 15 0 0.0 0.0 0.00 0.00 0.00 62 1009.0
20260509003345 15 0 0.0 0.0 0.00 0.00 0.00 62 1009.0
20260509003245 15 0 0.0 0.0 0.00 0.00 0.00 61 1009.0
20260509003236 15 0 0.0 0.0 0.00 0.00 0.00 59 1008.9
20260509003144 15 0 0.0 0.0 0.00 0.00 0.00 61 1008.9
20260509003120 15 0 0.0 0.0 0.00 0.00 0.00 60 1008.9
20260509003111 15 0 0.0 0.0 0.00 0.00 0.00 59 1008.9
20260509003018 15 360 0.0 0.0 0.00 0.00 0.00 60 1008.8
20260509002851 15 0 0.0 0.0 0.00 0.00 0.00 59 1008.8
20260509002641 15 0 0.0 0.0 0.00 0.00 0.00 58 1008.8
20260509002541 15 0 0.0 0.0 0.00 0.00 0.00 59 1008.8
20260509002518 15 360 0.0 0.0 0.00 0.00 0.00 59 1008.6
20260509002442 15 0 0.0 0.0 0.00 0.00 0.00 59 1008.7
20260509002340 15 0 0.0 0.0 0.00 0.00 0.00 58 1008.8
20260509002307 16 0 0.0 0.0 0.00 0.00 0.00 58 1008.8
20260509002257 15 0 0.0 0.0 0.00 0.00 0.00 58 1008.8
20260509002018 16 360 0.0 0.0 0.00 0.00 0.00 59 1008.8
20260509001936 16 0 0.0 0.0 0.00 0.00 0.00 59 1008.8
20260509001836 16 0 0.0 0.0 0.00 0.00 0.00 60 1008.8
20260509001737 16 0 0.0 0.0 0.00 0.00 0.00 59 1008.8
20260509001647 16 0 0.0 0.0 0.00 0.00 0.00 59 1008.8
20260509001643 16 0 0.0 0.0 0.00 0.00 0.00 59 1008.8
20260509001518 16 360 0.0 0.0 0.00 0.00 0.00 59 1008.7
20260509001441 16 0 0.0 0.0 0.00 0.00 0.00 59 1008.7
20260509001433 16 0 0.0 0.0 0.00 0.00 0.00 58 1008.7
20260509001332 16 0 0.0 0.0 0.00 0.00 0.00 58 1008.7
20260509001232 16 0 0.0 0.0 0.00 0.00 0.00 58 1008.7
20260509001131 16 0 0.0 0.0 0.00 0.00 0.00 57 1008.8
20260509001030 16 0 0.0 0.0 0.00 0.00 0.00 56 1008.8
20260509001018 16 360 0.0 0.0 0.00 0.00 0.00 56 1008.8
20260509000930 16 0 0.0 0.0 0.00 0.00 0.00 56 1008.8
20260509000830 16 0 0.0 0.0 0.00 0.00 0.00 56 1008.8
20260509000730 16 0 0.0 0.0 0.00 0.00 0.00 55 1008.8
20260509000629 16 0 0.0 0.0 0.00 0.00 0.00 55 1008.8
20260509000544 16 0 0.0 0.0 0.00 0.00 0.00 54 1008.8
20260509000535 16 0 0.0 0.0 0.00 0.00 0.00 54 1008.8
20260509000518 16 360 0.0 0.0 0.00 0.00 0.00 54 1008.8
20260509000328 16 0 0.0 0.0 0.00 0.00 0.00 54 1008.8
20260509000228 16 0 0.0 0.0 0.00 0.00 0.00 53 1008.8
20260509000127 16 0 0.0 0.0 0.00 0.00 0.00 53 1008.7
20260509000027 16 0 0.0 0.0 0.00 0.00 0.00 52 1008.7
20260509000018 16 360 0.0 0.0 0.00 0.00 0.00 52 1008.7
20260508235926 16 0 0.0 0.0 0.00 0.00 0.00 52 1008.7
20260508235825 16 0 0.0 0.0 0.00 0.00 0.00 51 1008.7
20260508235725 16 0 0.0 0.0 0.00 0.00 0.00 51 1008.7
20260508235637 16 0 0.0 0.0 0.00 0.00 0.00 52 1008.7
20260508235633 16 0 0.0 0.0 0.00 0.00 0.00 51 1008.7
20260508235518 16 360 0.0 0.0 0.00 0.00 0.00 52 1008.6
20260508235446 16 0 0.0 0.0 0.00 0.00 0.00 53 1008.7
20260508235332 16 0 0.0 0.0 0.00 0.00 0.00 52 1008.6
20260508235124 16 0 0.0 0.0 0.00 0.00 0.00 52 1008.6
20260508235023 16 0 0.0 0.0 0.00 0.00 0.00 52 1008.6
20260508235018 16 360 0.0 0.0 0.00 0.00 0.00 52 1008.5
20260508234923 16 0 0.0 0.0 0.00 0.00 0.00 52 1008.6
20260508234823 16 0 0.0 0.0 0.00 0.00 0.00 52 1008.6
20260508234723 16 0 0.0 0.0 0.00 0.00 0.00 53 1008.5
20260508234622 16 0 0.0 0.0 0.00 0.00 0.00 52 1008.5
20260508234537 16 0 0.0 0.0 0.00 0.00 0.00 54 1008.6
20260508234528 16 0 0.0 0.0 0.00 0.00 0.00 54 1008.5
20260508234519 17 360 0.0 0.0 0.00 0.00 0.00 54 1008.4
20260508234321 17 0 0.0 0.0 0.00 0.00 0.00 53 1008.6
20260508234250 17 0 0.0 0.0 0.00 0.00 0.00 51 1008.5
20260508234221 17 0 0.0 0.0 0.00 0.00 0.00 52 1008.5
20260508234149 17 0 0.0 0.0 0.00 0.00 0.00 48 1008.5
20260508234144 17 0 0.0 0.0 0.00 0.00 0.00 53 1008.5
20260508234135 17 0 0.0 0.0 0.00 0.00 0.00 52 1008.5
20260508234017 17 360 0.0 0.0 0.00 0.00 0.00 51 1008.4
20260508233820 17 0 0.0 0.0 0.00 0.00 0.00 48 1008.5
20260508233719 17 0 0.0 0.0 0.00 0.00 0.00 48 1008.5
20260508233619 17 0 0.0 0.0 0.00 0.00 0.00 48 1008.5
20260508233519 17 0 0.0 0.0 0.00 0.00 0.00 49 1008.5
20260508233508 17 0 0.0 0.0 0.00 0.00 0.00 50 1008.5
20260508233503 17 0 0.0 0.0 0.00 0.00 0.00 48 1008.5
20260508233456 17 0 0.0 0.0 0.00 0.00 0.00 48 1008.5
20260508233452 17 0 0.0 0.0 0.00 0.00 0.00 48 1008.5
20260508233445 17 0 0.0 0.0 0.00 0.00 0.00 49 1008.5
20260508233017 17 0 0.0 0.0 0.00 0.00 0.00 48 1008.4
20260508232916 17 0 0.0 0.0 0.00 0.00 0.00 48 1008.4
20260508232816 17 0 0.0 0.0 0.00 0.00 0.00 48 1008.4
20260508232715 17 0 0.0 0.0 0.00 0.00 0.00 47 1008.4
20260508232614 17 0 0.0 0.0 0.00 0.00 0.00 48 1008.4
20260508232533 17 360 0.0 0.0 0.00 0.00 0.00 47 1008.3
20260508232530 17 0 0.0 0.0 0.00 0.00 0.00 47 1008.4
20260508232521 17 0 0.0 0.0 0.00 0.00 0.00 47 1008.4
20260508232313 17 0 0.0 0.0 0.00 0.00 0.00 46 1008.4
20260508232213 17 0 0.0 0.0 0.00 0.00 0.00 46 1008.4
20260508232122 17 0 0.0 0.0 0.00 0.00 0.00 46 1008.3
20260508232118 17 0 0.0 0.0 0.00 0.00 0.00 46 1008.4
20260508232018 17 360 0.0 0.0 0.00 0.00 0.00 46 1008.1
20260508231928 17 0 0.0 0.0 0.00 0.00 0.00 46 1008.3
20260508231908 17 0 0.0 0.0 0.00 0.00 0.00 46 1008.4
20260508231806 17 0 0.0 0.0 0.00 0.00 0.00 46 1008.4
20260508231707 17 0 0.0 0.0 0.00 0.00 0.00 45 1008.4
20260508231607 17 0 0.0 0.0 0.00 0.00 0.00 45 1008.4
20260508231527 17 0 0.0 0.0 0.00 0.00 0.00 45 1008.4
20260508231522 17 0 0.0 0.0 0.00 0.00 0.00 45 1008.3
20260508231518 17 360 0.0 0.0 0.00 0.00 0.00 45 1008.1
20260508231512 17 0 0.0 0.0 0.00 0.00 0.00 45 1008.3
20260508231305 17 0 0.0 0.0 0.00 0.00 0.00 45 1008.3
20260508231204 17 0 0.0 0.0 0.00 0.00 0.00 46 1008.3
20260508231149 18 0 0.0 0.0 0.00 0.00 0.00 47 1008.3
20260508231104 17 0 0.0 0.0 0.00 0.00 0.00 45 1008.3
20260508231035 17 0 0.0 0.0 0.00 0.00 0.00 46 1008.3
20260508231018 17 360 0.0 0.0 0.00 0.00 0.00 46 1008.1
20260508230903 18 0 0.0 0.0 0.00 0.00 0.00 47 1008.3
20260508230800 18 0 0.0 0.0 0.00 0.00 0.00 46 1008.3
20260508230700 17 0 0.0 0.0 0.00 0.00 0.00 45 1008.3
20260508230618 18 360 0.0 0.0 0.00 0.00 0.00 44 1008.1
20260508230600 18 0 0.0 0.0 0.00 0.00 0.00 44 1008.3
20260508230540 18 0 0.0 0.0 0.00 0.00 0.00 44 1008.3
20260508230427 18 0 0.0 0.0 0.00 0.00 0.00 44 1008.3
20260508230422 18 0 0.0 0.0 0.00 0.00 0.00 45 1008.3
20260508230416 18 0 0.0 0.0 0.00 0.00 0.00 44 1008.2
20260508230144 18 0 0.0 0.0 0.00 0.00 0.00 45 1008.3
20260508230056 18 0 0.0 0.0 0.00 0.00 0.00 46 1008.3
20260508230032 18 0 0.0 0.0 0.00 0.00 0.00 45 1008.3
20260508230018 18 360 0.0 0.0 0.00 0.00 0.00 46 1008.1
20260508225856 18 0 0.0 0.0 0.00 0.00 0.00 45 1008.2
20260508225755 18 0 0.0 0.0 0.00 0.00 0.00 45 1008.2
20260508225655 18 0 0.0 0.0 0.00 0.00 0.00 45 1008.3
20260508225605 18 0 0.0 0.0 0.00 0.00 0.00 45 1008.2
20260508225601 18 0 0.0 0.0 0.00 0.00 0.00 46 1008.3
20260508225518 18 360 0.0 0.0 0.00 0.00 0.00 46 1008.0
20260508225436 18 0 0.0 0.0 0.00 0.00 0.00 46 1008.2
20260508225429 18 0 0.0 0.0 0.00 0.00 0.00 45 1008.2
20260508225422 18 0 0.0 0.0 0.00 0.00 0.00 46 1008.2
20260508225200 18 0 0.0 0.0 0.00 0.00 0.00 46 1008.2
20260508225018 18 360 0.0 0.0 0.00 0.00 0.00 45 1008.0
20260508224924 18 0 0.0 0.0 0.00 0.00 0.00 45 1008.2
20260508224847 18 0 0.0 0.0 0.00 0.00 0.00 45 1008.2
20260508224747 18 0 0.0 0.0 0.00 0.00 0.00 45 1008.2
20260508224647 18 0 0.0 1.6 0.00 0.00 0.00 43 1008.1
20260508224546 18 0 0.0 1.6 0.00 0.00 0.00 45 1008.2
20260508224519 18 360 0.0 1.6 0.00 0.00 0.00 45 1008.0
20260508224424 18 0 0.0 1.6 0.00 0.00 0.00 44 1008.2
20260508224357 18 0 0.0 1.6 0.00 0.00 0.00 44 1008.2
20260508224353 18 0 0.0 1.6 0.00 0.00 0.00 45 1008.2
20260508224143 18 0 0.0 1.6 0.00 0.00 0.00 44 1008.2
20260508224043 18 0 0.0 1.6 0.00 0.00 0.00 44 1008.2
20260508224018 18 360 0.0 1.6 0.00 0.00 0.00 44 1008.0
20260508223922 18 0 0.0 1.6 0.00 0.00 0.00 44 1008.2
20260508223842 18 0 0.0 1.6 0.00 0.00 0.00 43 1008.2
20260508223754 18 0 0.0 0.0 0.00 0.00 0.00 44 1008.2
20260508223750 18 0 0.0 1.6 0.00 0.00 0.00 44 1008.2
20260508223541 18 0 0.0 0.0 0.00 0.00 0.00 44 1008.2
20260508223518 18 360 0.0 0.0 0.00 0.00 0.00 44 1007.9
20260508223424 18 0 0.0 0.0 0.00 0.00 0.00 44 1008.1
20260508223339 18 0 0.0 0.0 0.00 0.00 0.00 45 1008.1
20260508223239 18 0 0.0 0.0 0.00 0.00 0.00 45 1008.1
20260508223138 18 0 0.0 0.0 0.00 0.00 0.00 45 1008.1
20260508223038 18 0 0.0 0.0 0.00 0.00 0.00 45 1008.1
20260508223018 18 360 0.0 0.0 0.00 0.00 0.00 45 1007.9
20260508222938 18 0 0.0 0.0 0.00 0.00 0.00 45 1008.1
20260508222924 18 0 0.0 0.0 0.00 0.00 0.00 44 1008.1
20260508222837 18 0 0.0 0.0 0.00 0.00 0.00 44 1008.1
20260508222749 18 0 0.0 0.0 0.00 0.00 0.00 43 1008.2
20260508222745 18 0 0.0 0.0 0.00 0.00 0.00 43 1008.1
20260508222536 18 0 0.0 0.0 0.00 0.00 0.00 43 1008.2
20260508222518 18 360 0.0 0.0 0.00 0.00 0.00 43 1008.0
20260508222421 18 0 0.0 0.0 0.00 0.00 0.00 43 1008.2
20260508222335 18 0 0.0 0.0 0.00 0.00 0.00 43 1008.2
20260508222234 18 0 0.0 0.0 0.00 0.00 0.00 43 1008.2
20260508222133 18 0 0.0 0.0 0.00 0.00 0.00 43 1008.3
20260508222033 18 360 0.0 0.0 0.00 0.00 0.00 43 1008.1
20260508221920 18 0 0.0 0.0 0.00 0.00 0.00 43 1008.3
20260508221832 18 0 0.0 0.0 0.00 0.00 0.00 42 1008.3
20260508221732 18 0 0.0 0.0 0.00 0.00 0.00 41 1008.3
20260508221631 18 0 0.0 0.0 0.00 0.00 0.00 41 1008.3
20260508221533 18 360 0.0 0.0 0.00 0.00 0.00 41 1008.1
20260508221531 18 0 0.0 0.0 0.00 0.00 0.00 41 1008.3
20260508221431 18 0 0.0 0.0 0.00 0.00 0.00 41 1008.3
20260508221417 18 0 0.0 0.0 0.00 0.00 0.00 41 1008.3
20260508221330 18 0 0.0 0.0 0.00 0.00 0.00 43 1008.2
20260508221228 18 0 0.0 0.0 0.00 0.00 0.00 42 1008.2
20260508221134 18 0 0.0 0.0 0.00 0.00 0.00 41 1008.2
20260508221128 18 0 0.0 0.0 0.00 0.00 0.00 43 1008.2
20260508221030 18 0 0.0 0.0 0.00 0.00 0.00 43 1008.2
20260508221021 18 0 0.0 0.0 0.00 0.00 0.00 41 1008.2
20260508221018 18 360 0.0 0.0 0.00 0.00 0.00 43 1008.0
20260508220826 18 0 0.0 0.0 0.00 0.00 0.00 41 1008.3
20260508220726 18 0 0.0 0.0 0.00 0.00 0.00 42 1008.2
20260508220625 18 0 0.0 0.0 0.00 0.00 0.00 42 1008.2
20260508220525 18 0 0.0 0.0 0.00 0.00 0.00 41 1008.2
20260508220518 18 360 0.0 0.0 0.00 0.00 0.00 41 1008.0
20260508220416 18 0 0.0 0.0 0.00 0.00 0.00 41 1008.2
20260508220337 18 0 0.0 0.0 0.00 0.00 0.00 41 1008.1
20260508220333 18 0 0.0 0.0 0.00 0.00 0.00 41 1008.2
20260508220121 18 0 0.0 0.0 0.00 0.00 0.00 40 1008.1
20260508220020 18 0 0.0 0.0 0.00 0.00 0.00 40 1008.2
20260508220018 18 360 0.0 0.0 0.00 0.00 0.00 41 1008.0
20260508215916 18 0 0.0 0.0 0.00 0.00 0.00 42 1008.2
20260508215819 18 0 0.0 1.6 0.00 0.00 0.00 41 1008.2
20260508215718 18 0 0.0 8.0 0.00 0.00 0.00 39 1008.2
20260508215618 18 0 0.0 8.0 0.00 0.00 0.00 41 1008.2
20260508215533 18 360 0.0 8.0 0.00 0.00 0.00 41 1008.0
20260508215518 18 0 0.0 8.0 0.00 0.00 0.00 41 1008.3
20260508215414 18 0 0.0 8.0 0.00 0.00 0.00 40 1008.2
20260508215316 18 0 0.0 8.0 0.00 0.00 0.00 39 1008.3
20260508215216 18 0 0.0 8.0 0.00 0.00 0.00 40 1008.3
20260508215116 18 0 0.0 8.0 0.00 0.00 0.00 39 1008.3
20260508215033 18 360 0.0 8.0 0.00 0.00 0.00 40 1008.0
20260508215014 18 0 0.0 8.0 0.00 0.00 0.00 40 1008.2
20260508214914 18 0 1.6 9.7 0.00 0.00 0.00 40 1008.2
20260508214813 18 0 1.6 9.7 0.00 0.00 0.00 43 1008.3
20260508214713 18 0 0.0 9.7 0.00 0.00 0.00 42 1008.3
20260508214613 18 0 0.0 9.7 0.00 0.00 0.00 41 1008.3
20260508214518 18 360 0.0 9.7 0.00 0.00 0.00 41 1008.0
20260508214512 18 0 0.0 9.7 0.00 0.00 0.00 41 1008.2
20260508214413 18 0 0.0 9.7 0.00 0.00 0.00 41 1008.2
20260508214311 18 0 0.0 9.7 0.00 0.00 0.00 40 1008.1
20260508214210 18 0 0.0 9.7 0.00 0.00 0.00 40 1008.2
20260508214110 18 0 0.0 9.7 0.00 0.00 0.00 39 1008.2
20260508214018 18 360 6.4 9.7 0.00 0.00 0.00 39 1008.0
20260508214009 18 0 0.0 9.7 0.00 0.00 0.00 39 1008.2
20260508213914 18 0 0.0 3.2 0.00 0.00 0.00 39 1008.2
20260508213909 18 0 0.0 1.6 0.00 0.00 0.00 39 1008.2
20260508213807 18 0 0.0 0.0 0.00 0.00 0.00 39 1008.2
20260508213706 18 0 0.0 0.0 0.00 0.00 0.00 39 1008.2
20260508213607 19 0 0.0 0.0 0.00 0.00 0.00 39 1008.2
20260508213518 19 360 0.0 0.0 0.00 0.00 0.00 40 1008.0
20260508213505 19 0 0.0 0.0 0.00 0.00 0.00 40 1008.2
20260508213406 19 0 0.0 0.0 0.00 0.00 0.00 40 1008.2
20260508213306 19 0 0.0 0.0 0.00 0.00 0.00 39 1008.2
20260508213204 19 0 0.0 0.0 0.00 0.00 0.00 39 1008.2
20260508213105 19 0 0.0 0.0 0.00 0.00 0.00 40 1008.2
20260508213018 19 360 0.0 14.5 0.00 0.00 0.00 39 1008.0
20260508213003 19 0 0.0 14.5 0.00 0.00 0.00 39 1008.2
20260508212904 19 0 0.0 14.5 0.00 0.00 0.00 39 1008.2
20260508212802 19 0 0.0 14.5 0.00 0.00 0.00 38 1008.2
20260508212702 19 0 0.0 14.5 0.00 0.00 0.00 37 1008.2
20260508212645 20 0 1.6 14.5 0.00 0.00 0.00 36 1008.2
20260508212637 19 0 0.0 14.5 0.00 0.00 0.00 37 1008.2
20260508212533 20 360 0.0 14.5 0.00 0.00 0.00 37 1008.0
20260508212524 20 0 0.0 14.5 0.00 0.00 0.00 37 1008.2
20260508212409 20 296 1.6 14.5 0.00 0.00 0.00 36 1008.2
20260508212200 20 272 1.6 25.7 0.00 0.00 0.00 36 1008.2
20260508212112 20 302 0.0 25.7 0.00 0.00 0.00 37 1008.2
20260508212108 20 261 0.0 25.7 0.00 0.00 0.00 37 1008.2
20260508212018 20 259 6.4 25.7 0.00 0.00 0.00 37 1008.0
20260508211911 20 281 0.0 25.7 0.00 0.00 0.00 37 1008.3
20260508211858 20 281 0.0 25.7 0.00 0.00 0.00 37 1008.3
20260508211758 20 284 0.0 25.7 0.00 0.00 0.00 37 1008.2
20260508211658 20 228 1.6 25.7 0.00 0.00 0.00 37 1008.2
20260508211557 20 257 1.6 25.7 0.00 0.00 0.00 35 1008.3
20260508211533 20 285 0.0 25.7 0.00 0.00 0.00 36 1008.1
20260508211457 20 259 1.6 25.7 0.00 0.00 0.00 35 1008.3
20260508211415 20 275 0.0 25.7 0.00 0.00 0.00 36 1008.3
20260508211409 20 308 0.0 11.3 0.00 0.00 0.00 36 1008.3
20260508211405 20 300 0.0 25.7 0.00 0.00 0.00 36 1008.3
20260508211154 20 306 0.0 11.3 0.00 0.00 0.00 36 1008.3
20260508211054 20 291 0.0 11.3 0.00 0.00 0.00 38 1008.2
20260508211018 20 252 0.0 11.3 0.00 0.00 0.00 36 1008.0
20260508210954 20 251 0.0 11.3 0.00 0.00 0.00 36 1008.2
20260508210915 20 257 0.0 11.3 0.00 0.00 0.00 36 1008.2
20260508210853 20 250 0.0 11.3 0.00 0.00 0.00 35 1008.2
20260508210752 20 261 0.0 11.3 0.00 0.00 0.00 36 1008.2
20260508210704 20 245 0.0 1.6 0.00 0.00 0.00 37 1008.3
20260508210700 20 230 0.0 11.3 0.00 0.00 0.00 36 1008.2
20260508210518 20 234 0.0 1.6 0.00 0.00 0.00 36 1008.1
20260508210450 20 234 0.0 1.6 0.00 0.00 0.00 36 1008.3
20260508210412 20 246 0.0 1.6 0.00 0.00 0.00 37 1008.2
20260508210349 20 222 0.0 1.6 0.00 0.00 0.00 37 1008.2
20260508210302 20 243 0.0 6.4 0.00 0.00 0.00 37 1008.2
20260508210258 20 288 0.0 1.6 0.00 0.00 0.00 36 1008.2
20260508210100 20 277 1.6 20.9 0.00 0.00 0.00 37 1008.2
20260508210056 20 271 0.0 6.4 0.00 0.00 0.00 36 1008.2
20260508210018 20 277 0.0 20.9 0.00 0.00 0.00 37 1008.0
20260508205912 20 277 1.6 20.9 0.00 0.00 0.00 38 1008.2
20260508205845 20 280 1.6 20.9 0.00 0.00 0.00 37 1008.2
20260508205745 19 258 1.6 20.9 0.00 0.00 0.00 38 1008.3
20260508205645 19 250 1.6 20.9 0.00 0.00 0.00 36 1008.3
20260508205544 19 247 1.6 20.9 0.00 0.00 0.00 38 1008.3
20260508205518 19 267 0.0 20.9 0.00 0.00 0.00 36 1008.1
20260508205444 19 267 1.6 20.9 0.00 0.00 0.00 36 1008.3
20260508205415 19 266 1.6 20.9 0.00 0.00 0.00 36 1008.2
20260508205409 19 213 3.2 20.9 0.00 0.00 0.00 36 1008.2
20260508205405 19 242 1.6 20.9 0.00 0.00 0.00 36 1008.2
20260508205400 19 248 1.6 20.9 0.00 0.00 0.00 36 1008.2
20260508205136 19 224 1.6 17.7 0.00 0.00 0.00 37 1008.3
20260508205042 19 227 3.2 20.9 0.00 0.00 0.00 36 1008.2
20260508205019 19 15 3.2 17.7 0.00 0.00 0.00 38 1008.2
20260508204841 18 0 1.6 17.7 0.00 0.00 0.00 37 1008.3
20260508204740 18 0 1.6 17.7 0.00 0.00 0.00 37 1008.3
20260508204640 18 0 1.6 17.7 0.00 0.00 0.00 38 1008.3
20260508204554 18 0 1.6 17.7 0.00 0.00 0.00 37 1008.4
20260508204549 18 0 1.6 17.7 0.00 0.00 0.00 37 1008.4
20260508204533 18 360 0.0 17.7 0.00 0.00 0.00 37 1008.2
20260508204411 18 0 1.6 17.7 0.00 0.00 0.00 38 1008.4
20260508204339 18 0 1.6 17.7 0.00 0.00 0.00 38 1008.4
20260508204236 18 0 1.6 16.1 0.00 0.00 0.00 37 1008.4
20260508204136 18 0 1.6 16.1 0.00 0.00 0.00 37 1008.5
20260508204049 18 360 0.0 16.1 0.00 0.00 0.00 39 1008.2
20260508204034 18 0 1.6 16.1 0.00 0.00 0.00 39 1008.4
20260508203933 18 0 1.6 16.1 0.00 0.00 0.00 39 1008.4
20260508203910 18 0 0.0 16.1 0.00 0.00 0.00 38 1008.4
20260508203833 18 0 0.0 16.1 0.00 0.00 0.00 38 1008.4
20260508203732 18 0 0.0 16.1 0.00 0.00 0.00 38 1008.4
20260508203631 18 0 0.0 6.4 0.00 0.00 0.00 39 1008.4
20260508203531 18 0 0.0 6.4 0.00 0.00 0.00 39 1008.4
20260508203518 18 360 0.0 6.4 0.00 0.00 0.00 39 1008.2
20260508203431 18 0 0.0 6.4 0.00 0.00 0.00 39 1008.4
20260508203409 18 0 0.0 9.7 0.00 0.00 0.00 39 1008.4
20260508203330 18 0 0.0 9.7 0.00 0.00 0.00 41 1008.4
20260508203242 18 0 0.0 9.7 0.00 0.00 0.00 37 1008.4
20260508203238 18 0 0.0 9.7 0.00 0.00 0.00 41 1008.4
20260508203034 18 360 0.0 9.7 0.00 0.00 0.00 36 1008.3
20260508203029 18 0 0.0 9.7 0.00 0.00 0.00 36 1008.5
20260508202928 18 0 0.0 9.7 0.00 0.00 0.00 38 1008.5
20260508202910 18 0 0.0 9.7 0.00 0.00 0.00 38 1008.5
20260508202828 18 0 0.0 9.7 0.00 0.00 0.00 38 1008.5
20260508202740 18 0 0.0 12.9 0.00 0.00 0.00 37 1008.5
20260508202736 18 0 0.0 12.9 0.00 0.00 0.00 38 1008.5
20260508202527 18 0 1.6 19.3 0.00 0.00 0.00 37 1008.5
20260508202519 18 360 0.0 20.9 0.00 0.00 0.00 37 1008.3
20260508202446 19 0 1.6 20.9 0.00 0.00 0.00 37 1008.5
20260508202440 18 0 1.6 20.9 0.00 0.00 0.00 38 1008.5
20260508202435 18 0 1.6 20.9 0.00 0.00 0.00 38 1008.5
20260508202222 19 0 1.6 20.9 0.00 0.00 0.00 37 1008.4
20260508202122 19 0 1.6 20.9 0.00 0.00 0.00 37 1008.3
20260508202022 19 0 1.6 20.9 0.00 0.00 0.00 37 1008.4
20260508202018 19 360 0.0 20.9 0.00 0.00 0.00 37 1008.2
20260508201921 19 0 1.6 20.9 0.00 0.00 0.00 36 1008.4
20260508201911 19 0 1.6 20.9 0.00 0.00 0.00 36 1008.5
20260508201821 19 0 1.6 20.9 0.00 0.00 0.00 36 1008.5
20260508201719 19 0 1.6 20.9 0.00 0.00 0.00 35 1008.4
20260508201620 19 0 1.6 20.9 0.00 0.00 0.00 36 1008.4
20260508201548 19 360 20.9 20.9 0.00 0.00 0.00 38 1008.2
20260508201533 19 0 0.0 6.4 0.00 0.00 0.00 37 1008.4
20260508201528 19 0 0.0 20.9 0.00 0.00 0.00 36 1008.4
20260508201409 19 0 0.0 6.4 0.00 0.00 0.00 37 1008.4
20260508201319 19 0 0.0 11.3 0.00 0.00 0.00 38 1008.4
20260508201218 19 0 0.0 11.3 0.00 0.00 0.00 38 1008.4
20260508201140 19 264 0.0 11.3 0.00 0.00 0.00 38 1008.4
20260508201136 19 0 0.0 11.3 0.00 0.00 0.00 38 1008.4
20260508201131 19 0 0.0 11.3 0.00 0.00 0.00 38 1008.4
20260508201018 19 360 0.0 11.3 0.00 0.00 0.00 38 1008.2
20260508201012 19 0 0.0 11.3 0.00 0.00 0.00 38 1008.4
20260508200816 19 266 0.0 11.3 0.00 0.00 0.00 37 1008.4
20260508200716 19 292 0.0 11.3 0.00 0.00 0.00 36 1008.4
20260508200626 19 232 1.6 12.9 0.00 0.00 0.00 37 1008.3
20260508200622 19 240 0.0 11.3 0.00 0.00 0.00 38 1008.3
20260508200518 19 232 0.0 12.9 0.00 0.00 0.00 37 1008.1
20260508200412 19 227 1.6 20.9 0.00 0.00 0.00 38 1008.4
20260508200406 19 205 1.6 20.9 0.00 0.00 0.00 39 1008.4
20260508200312 18 0 1.6 20.9 0.00 0.00 0.00 39 1008.3
20260508200211 18 0 1.6 20.9 0.00 0.00 0.00 38 1008.4
20260508200123 18 0 1.6 20.9 0.00 0.00 0.00 37 1008.5
20260508200119 18 0 1.6 20.9 0.00 0.00 0.00 38 1008.4
20260508200018 18 360 0.0 20.9 0.00 0.00 0.00 37 1008.3
20260508195909 18 0 1.6 20.9 0.00 0.00 0.00 37 1008.5
20260508195904 18 0 1.6 20.9 0.00 0.00 0.00 36 1008.5
20260508195809 18 0 1.6 20.9 0.00 0.00 0.00 36 1008.5
20260508195708 18 0 1.6 20.9 0.00 0.00 0.00 36 1008.5
20260508195636 18 0 1.6 20.9 0.00 0.00 0.00 37 1008.4
20260508195632 18 0 1.6 14.5 0.00 0.00 0.00 37 1008.5
20260508195626 18 0 1.6 20.9 0.00 0.00 0.00 36 1008.4
20260508195518 18 360 3.2 20.9 0.00 0.00 0.00 37 1008.2
20260508195404 18 0 1.6 14.5 0.00 0.00 0.00 37 1008.5
20260508195307 18 0 1.6 6.4 0.00 0.00 0.00 38 1008.4
20260508195207 18 0 1.6 9.7 0.00 0.00 0.00 37 1008.5
20260508195107 18 0 1.6 24.1 0.00 0.00 0.00 38 1008.5
20260508195018 18 360 0.0 19.3 0.00 0.00 0.00 37 1008.4
20260508195006 18 0 1.6 24.1 0.00 0.00 0.00 37 1008.6
20260508194925 18 0 1.6 24.1 0.00 0.00 0.00 37 1008.6
20260508194916 18 0 1.6 24.1 0.00 0.00 0.00 37 1008.6
20260508194705 18 0 1.6 24.1 0.00 0.00 0.00 37 1008.6
20260508194625 18 0 1.6 24.1 0.00 0.00 0.00 37 1008.6
20260508194605 18 0 1.6 24.1 0.00 0.00 0.00 37 1008.6
20260508194518 18 360 1.6 19.3 0.00 0.00 0.00 38 1008.3
20260508194515 18 0 1.6 24.1 0.00 0.00 0.00 38 1008.5
20260508194506 18 0 1.6 24.1 0.00 0.00 0.00 37 1008.6
20260508194303 18 0 1.6 24.1 0.00 0.00 0.00 36 1008.5
20260508194203 18 0 0.0 24.1 0.00 0.00 0.00 36 1008.6
20260508194115 18 0 0.0 8.0 0.00 0.00 0.00 37 1008.4
20260508194111 18 0 0.0 8.0 0.00 0.00 0.00 37 1008.6
20260508194048 18 360 0.0 8.0 0.00 0.00 0.00 37 1008.2
20260508193916 18 0 0.0 1.6 0.00 0.00 0.00 38 1008.5
20260508193907 18 0 0.0 1.6 0.00 0.00 0.00 38 1008.5
20260508193656 18 0 0.0 22.5 0.00 0.00 0.00 38 1008.5
20260508193554 18 0 0.0 22.5 0.00 0.00 0.00 38 1008.6
20260508193518 18 360 0.0 22.5 0.00 0.00 0.00 38 1008.4
20260508193454 18 0 1.6 22.5 0.00 0.00 0.00 37 1008.6
20260508193412 18 0 1.6 24.1 0.00 0.00 0.00 37 1008.6
20260508193402 18 0 1.6 24.1 0.00 0.00 0.00 37 1008.6
20260508193152 18 0 1.6 24.1 0.00 0.00 0.00 37 1008.6
20260508193053 18 0 1.6 24.1 0.00 0.00 0.00 37 1008.6
20260508193018 18 360 0.0 24.1 0.00 0.00 0.00 38 1008.4
20260508192952 18 0 1.6 24.1 0.00 0.00 0.00 37 1008.6
20260508192852 18 0 3.2 24.1 0.00 0.00 0.00 36 1008.6
20260508192751 18 0 3.2 24.1 0.00 0.00 0.00 36 1008.5
20260508192650 19 0 3.2 24.1 0.00 0.00 0.00 36 1008.6
20260508192550 19 0 3.2 24.1 0.00 0.00 0.00 35 1008.6
20260508192518 19 360 12.9 24.1 0.00 0.00 0.00 35 1008.4
20260508192450 19 0 4.8 24.1 0.00 0.00 0.00 36 1008.6
20260508192349 19 0 4.8 29.0 0.00 0.00 0.00 36 1008.5
20260508192248 19 0 3.2 29.0 0.00 0.00 0.00 35 1008.5
20260508192148 19 0 3.2 29.0 0.00 0.00 0.00 34 1008.5
20260508192118 20 0 3.2 29.0 0.00 0.00 0.00 34 1008.5
20260508192047 19 0 3.2 29.0 0.00 0.00 0.00 34 1008.5
20260508192018 19 360 0.0 29.0 0.00 0.00 0.00 34 1008.4
20260508192007 19 0 4.8 29.0 0.00 0.00 0.00 34 1008.6
20260508191845 20 0 3.2 29.0 0.00 0.00 0.00 34 1008.5
20260508191746 20 0 3.2 29.0 0.00 0.00 0.00 34 1008.5
20260508191645 20 0 3.2 29.0 0.00 0.00 0.00 35 1008.5
20260508191544 20 217 3.2 29.0 0.00 0.00 0.00 34 1008.6
20260508191518 20 256 4.8 29.0 0.00 0.00 0.00 34 1008.3
20260508191443 20 258 1.6 29.0 0.00 0.00 0.00 34 1008.5
20260508191356 20 254 1.6 16.1 0.00 0.00 0.00 35 1008.6
20260508191343 20 207 1.6 16.1 0.00 0.00 0.00 36 1008.6
20260508191309 20 257 1.6 16.1 0.00 0.00 0.00 36 1008.5
20260508191305 20 242 1.6 16.1 0.00 0.00 0.00 37 1008.6
20260508191300 20 276 1.6 16.1 0.00 0.00 0.00 35 1008.5
20260508191018 20 206 0.0 17.7 0.00 0.00 0.00 36 1008.2
20260508190958 20 281 1.6 17.7 0.00 0.00 0.00 36 1008.5
20260508190953 20 267 1.6 17.7 0.00 0.00 0.00 36 1008.4
20260508190945 20 286 1.6 17.7 0.00 0.00 0.00 36 1008.5
20260508190738 19 240 1.6 17.7 0.00 0.00 0.00 39 1008.5
20260508190637 19 234 1.6 17.7 0.00 0.00 0.00 40 1008.5
20260508190536 19 330 1.6 17.7 0.00 0.00 0.00 39 1008.6
20260508190518 19 242 0.0 17.7 0.00 0.00 0.00 37 1008.4
20260508190437 19 279 1.6 17.7 0.00 0.00 0.00 37 1008.6
20260508190355 19 233 1.6 17.7 0.00 0.00 0.00 38 1008.6
20260508190336 19 234 1.6 17.7 0.00 0.00 0.00 38 1008.6
20260508190236 19 217 1.6 17.7 0.00 0.00 0.00 37 1008.6
20260508190134 19 234 1.6 17.7 0.00 0.00 0.00 38 1008.6
20260508190033 18 252 1.6 17.7 0.00 0.00 0.00 38 1008.6
20260508190018 18 360 6.4 12.9 0.00 0.00 0.00 38 1008.4
20260508185932 18 0 1.6 9.7 0.00 0.00 0.00 39 1008.6
20260508185853 18 198 1.6 9.7 0.00 0.00 0.00 40 1008.6
20260508185832 18 265 1.6 9.7 0.00 0.00 0.00 40 1008.6
20260508185731 18 267 1.6 19.3 0.00 0.00 0.00 37 1008.6
20260508185630 18 265 1.6 19.3 0.00 0.00 0.00 37 1008.6
20260508185545 18 215 1.6 19.3 0.00 0.00 0.00 36 1008.8
20260508185540 18 321 1.6 19.3 0.00 0.00 0.00 36 1008.7
20260508185518 18 231 0.0 17.7 0.00 0.00 0.00 36 1008.6
20260508185355 18 221 1.6 19.3 0.00 0.00 0.00 36 1008.8
20260508185331 18 278 1.6 19.3 0.00 0.00 0.00 36 1008.8
20260508185229 18 230 1.6 19.3 0.00 0.00 0.00 37 1008.8
20260508185129 18 252 1.6 19.3 0.00 0.00 0.00 37 1008.8
20260508185042 18 261 3.2 25.7 0.00 0.00 0.00 36 1008.7
20260508185037 18 243 1.6 25.7 0.00 0.00 0.00 36 1008.8
20260508185018 18 360 0.0 25.7 0.00 0.00 0.00 36 1008.5
20260508184853 19 281 3.2 25.7 0.00 0.00 0.00 35 1008.6
20260508184828 19 205 3.2 25.7 0.00 0.00 0.00 35 1008.6
20260508184727 19 243 3.2 25.7 0.00 0.00 0.00 35 1008.6
20260508184627 19 250 3.2 25.7 0.00 0.00 0.00 35 1008.5
20260508184527 19 211 3.2 25.7 0.00 0.00 0.00 36 1008.6
20260508184518 19 225 0.0 25.7 0.00 0.00 0.00 36 1008.4
20260508184426 19 261 3.2 25.7 0.00 0.00 0.00 36 1008.6
20260508184353 19 348 3.2 25.7 0.00 0.00 0.00 35 1008.6
20260508184326 19 0 3.2 25.7 0.00 0.00 0.00 35 1008.6
20260508184225 19 275 3.2 25.7 0.00 0.00 0.00 35 1008.6
20260508184124 19 215 3.2 25.7 0.00 0.00 0.00 36 1008.5
20260508184118 19 254 3.2 25.7 0.00 0.00 0.00 35 1008.4
20260508184020 19 0 3.2 25.7 0.00 0.00 0.00 35 1008.6
20260508183919 19 272 3.2 25.7 0.00 0.00 0.00 34 1008.6
20260508183852 20 0 3.2 25.7 0.00 0.00 0.00 34 1008.6
20260508183819 20 275 3.2 25.7 0.00 0.00 0.00 35 1008.6
20260508183731 20 280 3.2 19.3 0.00 0.00 0.00 35 1008.7
20260508183727 20 294 3.2 20.9 0.00 0.00 0.00 36 1008.6
20260508183518 20 222 0.0 19.3 0.00 0.00 0.00 35 1008.6
20260508183417 20 291 1.6 19.3 0.00 0.00 0.00 34 1008.7
20260508183350 20 253 1.6 19.3 0.00 0.00 0.00 34 1008.6
20260508183316 20 226 1.6 19.3 0.00 0.00 0.00 36 1008.6
20260508183216 20 225 1.6 19.3 0.00 0.00 0.00 36 1008.6
20260508183128 20 243 3.2 19.3 0.00 0.00 0.00 34 1008.6
20260508183124 20 246 1.6 19.3 0.00 0.00 0.00 35 1008.6
20260508183018 20 273 0.0 19.3 0.00 0.00 0.00 35 1008.6
20260508182914 20 273 1.6 19.3 0.00 0.00 0.00 38 1008.7
20260508182849 20 232 1.6 19.3 0.00 0.00 0.00 38 1008.7
20260508182825 20 232 1.6 19.3 0.00 0.00 0.00 38 1008.6
20260508182821 20 281 1.6 19.3 0.00 0.00 0.00 37 1008.7
20260508182612 20 240 1.6 19.3 0.00 0.00 0.00 36 1008.7
20260508182524 20 227 1.6 19.3 0.00 0.00 0.00 34 1008.8
20260508182520 20 239 1.6 19.3 0.00 0.00 0.00 35 1008.7
20260508182350 20 259 1.6 19.3 0.00 0.00 0.00 34 1008.8
20260508182323 20 241 1.6 19.3 0.00 0.00 0.00 36 1008.9
20260508182319 20 242 1.6 19.3 0.00 0.00 0.00 34 1008.8
20260508182110 20 225 0.0 17.7 0.00 0.00 0.00 35 1008.9
20260508182022 20 229 1.6 17.7 0.00 0.00 0.00 36 1008.8
20260508182018 20 261 0.0 17.7 0.00 0.00 0.00 37 1008.7
20260508181848 20 234 1.6 17.7 0.00 0.00 0.00 37 1008.8
20260508181810 19 242 1.6 17.7 0.00 0.00 0.00 37 1008.9
20260508181735 19 0 1.6 17.7 0.00 0.00 0.00 36 1008.8
20260508181731 19 271 1.6 17.7 0.00 0.00 0.00 35 1008.9
20260508181725 19 0 1.6 17.7 0.00 0.00 0.00 38 1008.9
20260508181518 19 271 1.6 17.7 0.00 0.00 0.00 35 1008.7
20260508181406 19 219 1.6 17.7 0.00 0.00 0.00 36 1008.9
20260508181347 19 257 1.6 17.7 0.00 0.00 0.00 36 1008.9
20260508181321 19 229 0.0 14.5 0.00 0.00 0.00 37 1008.9
20260508181317 19 217 0.0 17.7 0.00 0.00 0.00 36 1008.9
20260508181112 19 242 0.0 16.1 0.00 0.00 0.00 37 1008.9
20260508181106 19 217 0.0 14.5 0.00 0.00 0.00 36 1008.8
20260508181018 19 196 1.6 14.5 0.00 0.00 0.00 36 1008.7
20260508181007 19 196 0.0 14.5 0.00 0.00 0.00 36 1008.9
20260508180954 19 236 0.0 16.1 0.00 0.00 0.00 39 1008.9
20260508180819 18 286 0.0 16.1 0.00 0.00 0.00 38 1009.0
20260508180815 19 240 0.0 16.1 0.00 0.00 0.00 37 1009.0
20260508180606 18 0 0.0 16.1 0.00 0.00 0.00 38 1008.9
20260508180518 18 360 0.0 16.1 0.00 0.00 0.00 37 1008.7
20260508180505 18 0 0.0 16.1 0.00 0.00 0.00 37 1008.9
20260508180405 18 0 0.0 16.1 0.00 0.00 0.00 37 1008.9
20260508180346 18 0 0.0 16.1 0.00 0.00 0.00 37 1008.9
20260508180305 18 0 0.0 16.1 0.00 0.00 0.00 36 1008.9
20260508180204 18 0 0.0 16.1 0.00 0.00 0.00 35 1009.0
20260508180033 19 360 0.0 16.1 0.00 0.00 0.00 34 1008.8
20260508180014 19 0 0.0 12.9 0.00 0.00 0.00 34 1009.2
20260508180010 19 0 0.0 16.1 0.00 0.00 0.00 34 1009.0
20260508175846 19 0 0.0 12.9 0.00 0.00 0.00 34 1009.2
20260508175800 19 0 0.0 12.9 0.00 0.00 0.00 35 1009.2
20260508175718 19 0 0.0 12.9 0.00 0.00 0.00 34 1009.2
20260508175713 20 0 1.6 12.9 0.00 0.00 0.00 34 1009.1
20260508175709 19 0 0.0 12.9 0.00 0.00 0.00 36 1009.2
20260508175518 20 360 0.0 12.9 0.00 0.00 0.00 35 1009.0
20260508175502 20 0 0.0 12.9 0.00 0.00 0.00 35 1009.2
20260508175453 20 0 1.6 12.9 0.00 0.00 0.00 34 1009.1
20260508175258 20 296 1.6 14.5 0.00 0.00 0.00 36 1009.2
20260508175157 20 310 0.0 14.5 0.00 0.00 0.00 35 1009.2
20260508175104 20 245 1.6 16.1 0.00 0.00 0.00 35 1009.2
20260508175057 20 277 1.6 14.5 0.00 0.00 0.00 36 1009.2
20260508175018 20 297 0.0 16.1 0.00 0.00 0.00 36 1009.0
20260508175001 20 297 1.6 16.1 0.00 0.00 0.00 36 1009.2
20260508174952 20 250 1.6 16.1 0.00 0.00 0.00 35 1009.2
20260508174755 20 219 1.6 16.1 0.00 0.00 0.00 35 1009.2
20260508174732 20 254 1.6 16.1 0.00 0.00 0.00 37 1009.2
20260508174728 20 307 0.0 16.1 0.00 0.00 0.00 37 1009.2
20260508174724 20 204 0.0 16.1 0.00 0.00 0.00 37 1009.2
20260508174718 20 197 1.6 16.1 0.00 0.00 0.00 37 1009.2
20260508174709 20 224 1.6 16.1 0.00 0.00 0.00 36 1009.3
20260508174518 20 234 0.0 16.1 0.00 0.00 0.00 37 1009.0
20260508174252 20 262 0.0 16.1 0.00 0.00 0.00 36 1009.2
20260508174204 20 259 0.0 16.1 0.00 0.00 0.00 35 1009.3
20260508174200 20 268 0.0 16.1 0.00 0.00 0.00 35 1009.3
20260508174018 20 247 0.0 12.9 0.00 0.00 0.00 36 1009.2
20260508173949 20 257 0.0 12.9 0.00 0.00 0.00 36 1009.4
20260508173851 19 260 0.0 17.7 0.00 0.00 0.00 35 1009.4
20260508173847 19 254 0.0 17.7 0.00 0.00 0.00 35 1009.4
20260508173748 19 247 0.0 17.7 0.00 0.00 0.00 36 1009.4
20260508173648 19 301 0.0 17.7 0.00 0.00 0.00 40 1009.4
20260508173600 19 234 0.0 17.7 0.00 0.00 0.00 38 1009.3
20260508173556 19 244 0.0 17.7 0.00 0.00 0.00 38 1009.4
20260508173549 19 262 0.0 17.7 0.00 0.00 0.00 38 1009.1
20260508173343 18 0 0.0 17.7 0.00 0.00 0.00 38 1009.3
20260508173244 18 0 0.0 17.7 0.00 0.00 0.00 38 1009.2
20260508173143 18 0 0.0 17.7 0.00 0.00 0.00 37 1009.2
20260508173043 18 0 0.0 17.7 0.00 0.00 0.00 37 1009.3
20260508173019 18 360 0.0 17.7 0.00 0.00 0.00 37 1009.1
20260508172942 18 0 0.0 17.7 0.00 0.00 0.00 37 1009.3
20260508172842 18 0 0.0 14.5 0.00 0.00 0.00 38 1009.3
20260508172741 18 0 1.6 14.5 0.00 0.00 0.00 37 1009.4
20260508172640 18 0 1.6 22.5 0.00 0.00 0.00 37 1009.3
20260508172540 18 0 1.6 22.5 0.00 0.00 0.00 36 1009.5
20260508172518 18 360 0.0 19.3 0.00 0.00 0.00 35 1009.2
20260508172439 18 0 1.6 22.5 0.00 0.00 0.00 35 1009.4
20260508172339 18 0 1.6 22.5 0.00 0.00 0.00 38 1009.3
20260508172238 18 0 1.6 22.5 0.00 0.00 0.00 38 1009.3
20260508172138 18 0 1.6 22.5 0.00 0.00 0.00 36 1009.4
20260508172121 19 0 1.6 22.5 0.00 0.00 0.00 37 1009.5
20260508172115 18 0 1.6 22.5 0.00 0.00 0.00 38 1009.5
20260508172048 19 360 8.0 19.3 0.00 0.00 0.00 37 1009.3
20260508172002 19 0 1.6 22.5 0.00 0.00 0.00 37 1009.5
20260508171847 19 0 1.6 22.5 0.00 0.00 0.00 37 1009.5
20260508171637 19 0 1.6 17.7 0.00 0.00 0.00 36 1009.5
20260508171538 19 254 1.6 17.7 0.00 0.00 0.00 37 1009.5
20260508171518 19 219 3.2 20.9 0.00 0.00 0.00 37 1009.3
20260508171438 19 273 1.6 20.9 0.00 0.00 0.00 36 1009.5
20260508171343 19 283 1.6 20.9 0.00 0.00 0.00 37 1009.6
20260508171337 19 267 1.6 20.9 0.00 0.00 0.00 37 1009.6
20260508171237 19 221 1.6 20.9 0.00 0.00 0.00 35 1009.5
20260508171136 19 221 1.6 20.9 0.00 0.00 0.00 36 1009.6
20260508171048 19 260 0.0 20.9 0.00 0.00 0.00 36 1009.5
20260508171035 19 236 1.6 20.9 0.00 0.00 0.00 36 1009.7
20260508170935 19 232 1.6 20.9 0.00 0.00 0.00 36 1009.7
20260508170854 19 215 0.0 20.9 0.00 0.00 0.00 37 1009.6
20260508170848 19 287 1.6 20.9 0.00 0.00 0.00 35 1009.6
20260508170843 19 229 1.6 20.9 0.00 0.00 0.00 35 1009.6
20260508170647 19 188 0.0 20.9 0.00 0.00 0.00 38 1009.7
20260508170642 19 207 0.0 20.9 0.00 0.00 0.00 37 1009.6
20260508170518 19 280 0.0 6.4 0.00 0.00 0.00 38 1009.4
20260508170438 19 322 0.0 12.9 0.00 0.00 0.00 39 1009.6
20260508170352 19 237 0.0 12.9 0.00 0.00 0.00 36 1009.8
20260508170346 19 57 0.0 12.9 0.00 0.00 0.00 38 1009.8
20260508170341 19 246 0.0 12.9 0.00 0.00 0.00 38 1009.8
20260508170130 19 224 0.0 12.9 0.00 0.00 0.00 37 1009.7
20260508170029 19 293 0.0 12.9 0.00 0.00 0.00 37 1009.7
20260508170018 19 252 0.0 12.9 0.00 0.00 0.00 37 1009.5
20260508165927 19 279 0.0 12.9 0.00 0.00 0.00 36 1009.7
20260508165839 19 240 1.6 12.9 0.00 0.00 0.00 38 1009.7
20260508165828 19 347 1.6 12.9 0.00 0.00 0.00 38 1009.7
20260508165727 19 274 1.6 12.9 0.00 0.00 0.00 37 1009.8
20260508165627 19 0 1.6 12.9 0.00 0.00 0.00 35 1009.7
20260508165527 19 0 1.6 17.7 0.00 0.00 0.00 36 1009.7
20260508165518 19 360 1.6 20.9 0.00 0.00 0.00 38 1009.5
20260508165427 19 0 1.6 20.9 0.00 0.00 0.00 37 1009.7
20260508165326 19 0 1.6 20.9 0.00 0.00 0.00 39 1009.8
20260508165226 19 0 1.6 20.9 0.00 0.00 0.00 37 1009.8
20260508165125 19 0 1.6 20.9 0.00 0.00 0.00 39 1009.7
20260508165025 19 0 1.6 20.9 0.00 0.00 0.00 37 1009.7
20260508165018 19 360 0.0 20.9 0.00 0.00 0.00 36 1009.5
20260508164924 19 0 1.6 20.9 0.00 0.00 0.00 37 1009.7
20260508164824 19 0 1.6 20.9 0.00 0.00 0.00 37 1009.7
20260508164722 18 0 1.6 20.9 0.00 0.00 0.00 36 1009.7
20260508164623 18 0 1.6 20.9 0.00 0.00 0.00 37 1009.7
20260508164522 18 0 1.6 20.9 0.00 0.00 0.00 36 1009.7
20260508164518 18 360 0.0 20.9 0.00 0.00 0.00 36 1009.5
20260508164421 18 0 1.6 20.9 0.00 0.00 0.00 39 1009.7
20260508164336 18 0 3.2 24.1 0.00 0.00 0.00 37 1009.7
20260508164322 18 0 3.2 24.1 0.00 0.00 0.00 35 1009.7
20260508164222 18 0 3.2 24.1 0.00 0.00 0.00 37 1009.8
20260508164214 18 0 3.2 24.1 0.00 0.00 0.00 38 1009.8
20260508164059 18 0 1.6 24.1 0.00 0.00 0.00 35 1009.7
20260508164053 18 0 1.6 24.1 0.00 0.00 0.00 36 1009.8
20260508164018 18 360 0.0 24.1 0.00 0.00 0.00 36 1009.5
20260508163819 18 0 1.6 24.1 0.00 0.00 0.00 35 1009.7
20260508163732 18 0 1.6 24.1 0.00 0.00 0.00 35 1009.7
20260508163726 18 0 1.6 24.1 0.00 0.00 0.00 36 1009.8
20260508163604 18 360 17.7 24.1 0.00 0.00 0.00 35 1009.4
20260508163517 18 0 1.6 24.1 0.00 0.00 0.00 35 1009.7
20260508163417 18 0 1.6 24.1 0.00 0.00 0.00 36 1009.6
20260508163334 18 244 0.0 17.7 0.00 0.00 0.00 36 1009.6
20260508163316 18 0 0.0 17.7 0.00 0.00 0.00 36 1009.6
20260508163216 18 260 0.0 9.7 0.00 0.00 0.00 38 1009.7
20260508163115 18 236 0.0 6.4 0.00 0.00 0.00 37 1009.7
20260508163018 18 244 0.0 6.4 0.00 0.00 0.00 37 1009.5
20260508163015 18 244 0.0 6.4 0.00 0.00 0.00 37 1009.7
20260508162942 18 261 0.0 16.1 0.00 0.00 0.00 39 1009.7
20260508162933 18 0 0.0 16.1 0.00 0.00 0.00 38 1009.8
20260508162823 18 0 0.0 16.1 0.00 0.00 0.00 38 1009.8
20260508162613 18 0 0.0 16.1 0.00 0.00 0.00 40 1009.8
20260508162528 18 0 0.0 16.1 0.00 0.00 0.00 38 1009.9
20260508162522 18 0 0.0 16.1 0.00 0.00 0.00 40 1009.9
20260508162518 18 360 0.0 16.1 0.00 0.00 0.00 40 1009.7
20260508162332 18 0 0.0 16.1 0.00 0.00 0.00 37 1009.9
20260508162312 18 0 0.0 16.1 0.00 0.00 0.00 37 1009.9
20260508162212 18 0 0.0 16.1 0.00 0.00 0.00 37 1010.0
20260508162111 18 0 0.0 16.1 0.00 0.00 0.00 38 1010.0
20260508162018 18 360 3.2 16.1 0.00 0.00 0.00 37 1009.9
20260508162012 18 0 0.0 16.1 0.00 0.00 0.00 37 1010.0
20260508161912 18 0 0.0 12.9 0.00 0.00 0.00 36 1010.0
20260508161811 18 0 0.0 12.9 0.00 0.00 0.00 37 1010.0
20260508161711 18 0 0.0 12.9 0.00 0.00 0.00 37 1010.0
20260508161610 18 0 0.0 12.9 0.00 0.00 0.00 37 1010.0
20260508161518 18 360 0.0 12.9 0.00 0.00 0.00 38 1009.9
20260508161509 18 0 0.0 12.9 0.00 0.00 0.00 38 1010.0
20260508161408 18 0 1.6 29.0 0.00 0.00 0.00 39 1010.0
20260508161309 18 0 1.6 29.0 0.00 0.00 0.00 37 1010.0
20260508161207 18 0 1.6 29.0 0.00 0.00 0.00 37 1010.2
20260508161107 18 0 1.6 29.0 0.00 0.00 0.00 38 1010.2
20260508161033 18 360 0.0 29.0 0.00 0.00 0.00 38 1010.0
20260508161021 18 0 1.6 29.0 0.00 0.00 0.00 38 1010.2
20260508161015 18 0 1.6 29.0 0.00 0.00 0.00 39 1010.1
20260508160828 18 0 1.6 29.0 0.00 0.00 0.00 38 1010.2
20260508160805 18 0 1.6 29.0 0.00 0.00 0.00 36 1010.2
20260508160705 18 0 1.6 29.0 0.00 0.00 0.00 36 1010.2
20260508160621 18 0 1.6 29.0 0.00 0.00 0.00 37 1010.1
20260508160617 18 0 1.6 16.1 0.00 0.00 0.00 38 1010.3
20260508160612 18 0 1.6 29.0 0.00 0.00 0.00 37 1010.2
20260508160518 18 360 0.0 29.0 0.00 0.00 0.00 37 1009.9
20260508160438 18 0 1.6 16.1 0.00 0.00 0.00 38 1010.3
20260508160323 18 0 1.6 16.1 0.00 0.00 0.00 39 1010.4
20260508160209 18 0 1.6 16.1 0.00 0.00 0.00 38 1010.3
20260508160048 18 360 0.0 16.1 0.00 0.00 0.00 38 1010.0
20260508160000 18 0 1.6 16.1 0.00 0.00 0.00 38 1010.2
20260508155829 18 0 1.6 16.1 0.00 0.00 0.00 37 1010.0
20260508155757 18 0 1.6 16.1 0.00 0.00 0.00 38 1010.0
20260508155657 18 0 1.6 16.1 0.00 0.00 0.00 39 1010.0
20260508155556 18 0 1.6 16.1 0.00 0.00 0.00 39 1010.1
20260508155518 18 360 8.0 16.1 0.00 0.00 0.00 38 1009.9
20260508155512 18 269 0.0 12.9 0.00 0.00 0.00 38 1010.1
20260508155507 18 270 1.6 12.9 0.00 0.00 0.00 40 1007.8
20260508155502 18 0 1.6 16.1 0.00 0.00 0.00 38 1010.0
20260508155453 18 274 0.0 12.9 0.00 0.00 0.00 38 1010.2
20260508155445 18 241 0.0 12.9 0.00 0.00 0.00 38 1010.2
20260508155226 18 254 0.0 20.9 0.00 0.00 0.00 38 1007.5
20260508155221 18 296 0.0 12.9 0.00 0.00 0.00 39 1007.8
20260508155018 18 300 0.0 20.9 0.00 0.00 0.00 38 1007.6
20260508154826 18 146 0.0 20.9 0.00 0.00 0.00 39 1007.5
20260508154752 18 229 0.0 20.9 0.00 0.00 0.00 39 1007.4
20260508154652 17 0 0.0 20.9 0.00 0.00 0.00 40 1007.4
20260508154600 17 0 0.0 20.9 0.00 0.00 0.00 39 1007.6
20260508154552 17 0 0.0 20.9 0.00 0.00 0.00 41 1007.4
20260508154518 17 360 0.0 20.9 0.00 0.00 0.00 40 1006.9
20260508154451 17 0 0.0 20.9 0.00 0.00 0.00 40 1007.1